GFSGBSN_prec_precacc12_219.txt.gz
Total_Precipitation_Accumulation
0.00 0.00 0.00 0.00 0.00 0.00 0.00 0.00 0.00 0.00 0.00 0.00 0.00 0.00 0.00 0.00 0.00 0.00 0.00 0.00 0.00 0.00 0.00 0.00 0.00 0.00 0.00 0.00 0.00 0.00 0.00 0.00 0.00 0.00 0.00 0.00 0.00 0.00 0.00 0.00 0.00 0.00 0.00 0.00 0.00 0.00 0.00
0.00 0.00 0.00 0.00 0.00 0.00 0.00 0.00 0.00 0.00 0.00 0.00 0.00 0.00 0.00 0.00 0.00 0.00 0.00 0.00 0.00 0.00 0.00 0.00 0.00 0.00 0.00 0.00 0.00 0.00 0.00 0.00 0.00 0.00 0.00 0.00 0.00 0.00 0.00 0.00 0.00 0.00 0.00 0.00 0.00 0.00 0.00
0.00 0.00 0.00 0.00 0.00 0.00 0.00 0.00 0.00 0.00 0.00 0.00 0.00 0.00 0.00 0.00 0.00 0.00 0.00 0.00 0.00 0.00 0.00 0.00 0.00 0.00 0.00 0.00 0.00 0.00 0.00 0.00 0.00 0.00 0.00 0.00 0.00 0.00 0.00 0.00 0.00 0.00 0.00 0.00 0.00 0.00 0.00
0.00 0.00 0.00 0.00 0.00 0.00 0.00 0.00 0.00 0.00 0.00 0.00 0.00 0.00 0.00 0.00 0.00 0.00 0.00 0.00 0.00 0.00 0.00 0.00 0.00 0.00 0.00 0.00 0.00 0.00 0.00 0.00 0.00 0.00 0.00 0.00 0.00 0.00 0.00 0.00 0.00 0.00 0.00 0.00 0.00 0.00 0.00
0.00 0.00 0.00 0.00 0.00 0.00 0.00 0.00 0.00 0.00 0.00 0.00 0.00 0.00 0.00 0.00 0.00 0.00 0.00 0.00 0.00 0.00 0.00 0.00 0.00 0.00 0.00 0.00 0.00 0.00 0.00 0.00 0.00 0.00 0.00 0.00 0.00 0.00 0.00 0.00 0.00 0.00 0.00 0.00 0.00 0.00 0.00
0.00 0.00 0.00 0.00 0.00 0.00 0.00 0.00 0.00 0.00 0.00 0.00 0.00 0.00 0.00 0.00 0.00 0.00 0.00 0.00 0.00 0.00 0.00 0.00 0.00 0.00 0.00 0.00 0.00 0.00 0.00 0.00 0.00 0.00 0.00 0.00 0.00 0.00 0.00 0.00 0.00 0.00 0.00 0.00 0.00 0.00 0.00
0.00 0.00 0.00 0.00 0.00 0.00 0.00 0.00 0.00 0.00 0.00 0.00 0.00 0.00 0.00 0.00 0.00 0.00 0.00 0.00 0.00 0.00 0.00 0.00 0.00 0.00 0.00 0.00 0.00 0.00 0.00 0.00 0.00 0.00 0.00 0.00 0.00 0.00 0.00 0.00 0.00 0.00 0.00 0.00 0.00 0.00 0.00
0.00 0.00 0.00 0.00 0.00 0.00 0.00 0.00 0.00 0.00 0.00 0.00 0.00 0.00 0.00 0.00 0.00 0.00 0.00 0.00 0.00 0.00 0.00 0.00 0.00 0.00 0.00 0.00 0.00 0.00 0.00 0.00 0.00 0.00 0.00 0.00 0.00 0.00 0.00 0.00 0.00 0.00 0.00 0.00 0.00 0.00 0.00
0.00 0.00 0.00 0.00 0.00 0.00 0.00 0.00 0.00 0.00 0.00 0.00 0.00 0.00 0.00 0.00 0.00 0.00 0.00 0.00 0.00 0.00 0.00 0.00 0.00 0.00 0.00 0.00 0.00 0.00 0.00 0.00 0.00 0.00 0.00 0.00 0.00 0.00 0.00 0.00 0.00 0.00 0.00 0.00 0.00 0.00 0.00
0.00 0.00 0.00 0.00 0.00 0.00 0.00 0.00 0.00 0.00 0.00 0.00 0.00 0.00 0.00 0.00 0.00 0.00 0.00 0.00 0.00 0.00 0.00 0.00 0.00 0.00 0.00 0.00 0.00 0.00 0.00 0.00 0.00 0.00 0.00 0.00 0.00 0.00 0.00 0.00 0.00 0.00 0.00 0.00 0.00 0.00 0.00
0.04 0.02 0.01 0.00 0.00 0.00 0.00 0.00 0.00 0.00 0.00 0.00 0.00 0.00 0.00 0.00 0.00 0.00 0.00 0.00 0.00 0.00 0.01 0.00 0.00 0.00 0.00 0.00 0.00 0.00 0.00 0.00 0.00 0.00 0.00 0.00 0.00 0.00 0.00 0.00 0.00 0.00 0.00 0.00 0.00 0.00 0.00
0.45 0.16 0.05 0.03 0.01 0.00 0.00 0.00 0.00 0.00 0.00 0.00 0.00 0.00 0.00 0.00 0.00 0.00 0.00 0.00 0.00 0.02 0.02 0.00 0.00 0.00 0.00 0.00 0.00 0.00 0.00 0.00 0.00 0.00 0.00 0.00 0.00 0.00 0.00 0.00 0.00 0.00 0.00 0.00 0.00 0.00 0.00
0.91 0.65 0.41 0.14 0.05 0.03 0.01 0.00 0.00 0.00 0.00 0.00 0.00 0.00 0.00 0.00 0.00 0.00 0.00 0.00 0.01 0.03 0.00 0.00 0.00 0.00 0.00 0.00 0.00 0.00 0.00 0.00 0.00 0.00 0.00 0.00 0.00 0.00 0.00 0.00 0.00 0.00 0.00 0.00 0.00 0.00 0.00
0.91 0.90 0.62 0.53 0.35 0.12 0.06 0.04 0.02 0.01 0.01 0.00 0.00 0.00 0.00 0.00 0.00 0.00 0.00 0.02 0.02 0.00 0.00 0.00 0.00 0.00 0.00 0.00 0.00 0.00 0.00 0.00 0.00 0.00 0.00 0.00 0.00 0.00 0.00 0.00 0.00 0.00 0.00 0.00 0.00 0.00 0.00
0.42 0.51 0.65 0.58 0.49 0.45 0.26 0.12 0.09 0.06 0.06 0.12 0.15 0.09 0.06 0.00 0.00 0.01 0.08 0.09 0.01 0.00 0.00 0.00 0.00 0.00 0.00 0.00 0.00 0.00 0.00 0.00 0.00 0.00 0.00 0.00 0.00 0.00 0.00 0.00 0.00 0.00 0.00 0.00 0.00 0.00 0.00
0.31 0.31 0.29 0.35 0.43 0.43 0.43 0.36 0.27 0.25 0.24 0.57 1.16 0.85 0.35 0.04 0.03 0.26 0.41 0.13 0.00 0.00 0.00 0.00 0.00 0.00 0.00 0.00 0.00 0.00 0.00 0.00 0.00 0.00 0.00 0.00 0.00 0.00 0.00 0.00 0.00 0.00 0.00 0.00 0.00 0.00 0.00
0.29 0.29 0.28 0.28 0.28 0.31 0.38 0.46 0.49 0.53 0.83 1.41 2.42 2.38 0.90 0.16 0.43 1.00 0.63 0.08 0.00 0.00 0.00 0.00 0.00 0.00 0.00 0.00 0.00 0.00 0.00 0.00 0.00 0.00 0.00 0.00 0.00 0.00 0.00 0.00 0.00 0.00 0.00 0.00 0.00 0.00 0.00
0.08 0.15 0.23 0.24 0.25 0.26 0.31 0.39 0.52 0.67 1.02 2.40 3.28 2.59 1.18 0.63 2.27 1.78 0.33 0.00 0.00 0.00 0.00 0.00 0.00 0.00 0.00 0.00 0.00 0.00 0.00 0.00 0.00 0.00 0.00 0.00 0.01 0.00 0.00 0.00 0.00 0.00 0.00 0.00 0.00 0.00 0.00
0.03 0.04 0.07 0.14 0.19 0.21 0.24 0.33 0.49 0.69 1.03 1.73 2.58 2.12 1.59 1.16 1.69 1.28 0.22 0.01 0.00 0.00 0.00 0.00 0.00 0.00 0.00 0.00 0.04 0.01 0.00 0.00 0.00 0.01 0.03 0.02 0.08 0.01 0.00 0.00 0.00 0.00 0.00 0.00 0.00 0.00 0.00
0.01 0.02 0.03 0.04 0.08 0.16 0.26 0.31 0.38 0.58 1.02 1.81 2.34 2.32 2.17 2.61 1.25 0.61 0.14 0.03 0.01 0.00 0.00 0.00 0.00 0.00 0.00 0.01 0.01 0.00 0.00 0.00 0.00 0.02 0.07 0.10 0.18 0.05 0.00 0.00 0.00 0.00 0.00 0.00 0.00 0.00 0.00
0.01 0.01 0.02 0.03 0.04 0.05 0.10 0.23 0.40 0.58 0.94 1.70 2.48 2.19 1.41 1.43 0.98 0.43 0.19 0.10 0.03 0.02 0.01 0.00 0.02 0.00 0.00 0.01 0.03 0.05 0.02 0.03 0.03 0.05 0.10 0.20 0.20 0.03 0.00 0.00 0.00 0.00 0.00 0.00 0.02 0.02 0.00
0.01 0.01 0.01 0.01 0.02 0.03 0.06 0.09 0.21 0.52 1.15 1.84 2.02 1.43 0.80 0.54 0.27 0.24 0.23 0.16 0.05 0.01 0.02 0.03 0.01 0.00 0.00 0.04 0.04 0.05 0.13 0.22 0.15 0.15 0.16 0.18 0.12 0.04 0.01 0.00 0.00 0.00 0.00 0.00 0.00 0.00 0.00
0.02 0.01 0.01 0.02 0.01 0.02 0.02 0.06 0.13 0.30 1.03 1.78 1.46 0.94 0.47 0.39 0.21 0.36 0.47 0.18 0.08 0.05 0.05 0.03 0.01 0.01 0.09 0.12 0.04 0.17 0.34 0.37 0.26 0.22 0.24 0.24 0.18 0.15 0.15 0.01 0.06 0.10 0.00 0.00 0.00 0.00 0.00
0.03 0.03 0.02 0.02 0.02 0.03 0.02 0.03 0.07 0.19 0.64 1.08 0.69 0.51 0.65 0.74 0.37 0.30 0.16 0.05 0.04 0.09 0.19 0.16 0.09 0.21 0.24 0.10 0.21 0.57 0.78 0.68 0.49 0.35 0.18 0.24 0.26 0.43 0.43 0.29 0.51 0.06 0.00 0.00 0.00 0.00 0.00
0.04 0.04 0.05 0.04 0.03 0.02 0.04 0.05 0.06 0.10 0.31 0.69 0.54 0.53 0.99 1.00 0.61 0.27 0.11 0.09 0.09 0.08 0.33 0.70 0.56 0.39 0.21 0.40 0.98 1.37 1.21 0.95 0.74 0.48 0.23 0.14 0.27 0.66 0.77 0.56 0.23 0.01 0.00 0.00 0.00 0.00 0.00
0.06 0.05 0.05 0.05 0.04 0.03 0.04 0.06 0.09 0.08 0.15 0.32 0.48 0.49 0.90 1.19 0.84 0.27 0.11 0.13 0.25 0.26 0.37 0.65 0.55 0.45 0.45 0.73 1.13 1.18 0.76 0.37 0.25 0.14 0.06 0.08 0.26 0.63 0.97 0.66 0.25 0.01 0.00 0.00 0.00 0.00 0.00
0.06 0.07 0.06 0.06 0.05 0.06 0.05 0.06 0.08 0.09 0.16 0.21 0.25 0.33 0.71 1.14 0.83 0.30 0.21 0.16 0.18 0.28 0.46 0.52 0.51 0.76 0.78 0.91 1.11 0.97 0.69 0.32 0.30 0.11 0.03 0.11 0.38 0.63 0.42 0.51 0.34 0.01 0.00 0.00 0.00 0.00 0.00
0.09 0.07 0.07 0.07 0.06 0.07 0.07 0.09 0.09 0.10 0.13 0.23 0.18 0.18 0.44 0.78 0.67 0.35 0.30 0.30 0.15 0.19 0.41 0.45 0.35 0.61 0.82 0.92 1.09 0.89 0.60 0.38 0.20 0.07 0.01 0.05 0.23 0.39 0.30 0.59 0.42 0.00 0.00 0.00 0.00 0.00 0.00
0.08 0.08 0.07 0.08 0.09 0.08 0.08 0.09 0.11 0.11 0.14 0.23 0.18 0.18 0.23 0.48 0.50 0.25 0.23 0.23 0.24 0.23 0.29 0.45 0.41 0.37 0.26 0.42 0.70 0.64 0.71 0.51 0.23 0.17 0.03 0.05 0.05 0.07 0.10 0.11 0.01 0.00 0.00 0.00 0.00 0.00 0.00

GFSGBSN_prec_precacc12_222.txt.gz
Total_Precipitation_Accumulation
0.00 0.00 0.00 0.00 0.00 0.00 0.00 0.00 0.00 0.00 0.00 0.00 0.00 0.00 0.00 0.00 0.00 0.00 0.00 0.00 0.00 0.00 0.00 0.00 0.00 0.00 0.00 0.00 0.00 0.00 0.00 0.00 0.00 0.00 0.00 0.00 0.00 0.00 0.00 0.00 0.00 0.00 0.00 0.00 0.00 0.00 0.00
0.00 0.00 0.00 0.00 0.00 0.00 0.00 0.00 0.00 0.00 0.00 0.00 0.00 0.00 0.00 0.00 0.00 0.00 0.00 0.00 0.00 0.00 0.00 0.00 0.00 0.00 0.00 0.00 0.00 0.00 0.00 0.00 0.00 0.00 0.00 0.00 0.00 0.00 0.00 0.00 0.00 0.00 0.00 0.00 0.00 0.00 0.00
0.00 0.00 0.00 0.00 0.00 0.00 0.00 0.00 0.00 0.00 0.00 0.00 0.00 0.00 0.00 0.00 0.00 0.00 0.00 0.00 0.00 0.00 0.00 0.00 0.00 0.00 0.00 0.00 0.00 0.00 0.00 0.00 0.00 0.00 0.00 0.00 0.00 0.00 0.00 0.00 0.00 0.00 0.00 0.00 0.00 0.00 0.00
0.00 0.00 0.00 0.00 0.00 0.00 0.00 0.00 0.00 0.00 0.00 0.00 0.00 0.00 0.00 0.00 0.00 0.00 0.00 0.00 0.00 0.00 0.00 0.00 0.00 0.00 0.00 0.00 0.00 0.00 0.00 0.00 0.00 0.00 0.00 0.00 0.00 0.00 0.00 0.00 0.00 0.00 0.00 0.00 0.00 0.00 0.00
0.00 0.00 0.00 0.00 0.00 0.00 0.00 0.00 0.00 0.00 0.00 0.00 0.00 0.00 0.00 0.00 0.00 0.00 0.00 0.00 0.00 0.00 0.00 0.00 0.00 0.00 0.00 0.00 0.00 0.00 0.00 0.00 0.00 0.00 0.00 0.00 0.00 0.00 0.00 0.00 0.00 0.00 0.00 0.00 0.00 0.00 0.00
0.00 0.00 0.00 0.00 0.00 0.00 0.00 0.00 0.00 0.00 0.00 0.00 0.00 0.00 0.00 0.00 0.00 0.00 0.00 0.00 0.00 0.00 0.00 0.00 0.00 0.00 0.00 0.00 0.00 0.00 0.00 0.00 0.00 0.00 0.00 0.00 0.00 0.00 0.00 0.00 0.00 0.00 0.00 0.00 0.00 0.00 0.00
0.00 0.00 0.00 0.00 0.00 0.00 0.00 0.00 0.00 0.00 0.00 0.00 0.00 0.00 0.00 0.00 0.00 0.00 0.00 0.00 0.00 0.00 0.00 0.00 0.00 0.00 0.00 0.00 0.00 0.00 0.00 0.00 0.00 0.00 0.00 0.00 0.00 0.00 0.00 0.00 0.00 0.00 0.00 0.00 0.00 0.00 0.00
0.00 0.00 0.00 0.00 0.00 0.00 0.00 0.00 0.00 0.00 0.00 0.00 0.00 0.00 0.00 0.00 0.00 0.00 0.00 0.00 0.00 0.00 0.00 0.00 0.00 0.00 0.00 0.00 0.00 0.00 0.00 0.00 0.00 0.00 0.00 0.00 0.00 0.00 0.00 0.00 0.00 0.00 0.00 0.00 0.00 0.00 0.00
0.00 0.00 0.00 0.00 0.00 0.00 0.00 0.00 0.00 0.00 0.00 0.00 0.00 0.00 0.00 0.00 0.00 0.00 0.00 0.00 0.00 0.00 0.00 0.00 0.00 0.00 0.00 0.00 0.00 0.00 0.00 0.00 0.00 0.00 0.00 0.00 0.00 0.00 0.00 0.00 0.00 0.00 0.00 0.00 0.00 0.00 0.00
0.00 0.00 0.00 0.00 0.00 0.00 0.00 0.00 0.00 0.00 0.00 0.00 0.00 0.00 0.00 0.00 0.00 0.00 0.00 0.00 0.00 0.00 0.00 0.00 0.00 0.00 0.00 0.00 0.00 0.00 0.00 0.00 0.00 0.00 0.00 0.00 0.00 0.00 0.00 0.00 0.00 0.00 0.00 0.00 0.00 0.00 0.00
0.03 0.00 0.00 0.00 0.00 0.00 0.00 0.00 0.00 0.00 0.00 0.00 0.00 0.00 0.00 0.00 0.00 0.00 0.00 0.00 0.00 0.00 0.00 0.00 0.00 0.00 0.00 0.00 0.00 0.00 0.00 0.00 0.00 0.00 0.00 0.00 0.00 0.00 0.00 0.00 0.00 0.00 0.00 0.00 0.00 0.00 0.00
0.49 0.13 0.01 0.01 0.00 0.00 0.00 0.00 0.00 0.00 0.00 0.00 0.00 0.00 0.00 0.00 0.00 0.00 0.00 0.00 0.00 0.00 0.00 0.00 0.00 0.00 0.00 0.00 0.00 0.00 0.00 0.00 0.00 0.00 0.00 0.00 0.00 0.00 0.00 0.00 0.00 0.00 0.00 0.00 0.00 0.00 0.00
0.94 0.83 0.45 0.10 0.01 0.01 0.00 0.00 0.00 0.00 0.00 0.00 0.00 0.00 0.00 0.00 0.00 0.00 0.00 0.00 0.01 0.01 0.00 0.00 0.00 0.00 0.00 0.00 0.00 0.00 0.00 0.00 0.00 0.00 0.00 0.00 0.00 0.00 0.00 0.00 0.00 0.00 0.00 0.00 0.00 0.00 0.00
0.93 0.85 0.76 0.64 0.38 0.09 0.03 0.04 0.01 0.00 0.00 0.00 0.00 0.00 0.00 0.00 0.00 0.00 0.00 0.01 0.01 0.00 0.00 0.00 0.00 0.00 0.00 0.00 0.00 0.00 0.00 0.00 0.00 0.00 0.00 0.00 0.00 0.00 0.00 0.00 0.00 0.00 0.00 0.00 0.00 0.00 0.00
0.59 0.70 0.73 0.72 0.61 0.55 0.28 0.10 0.08 0.07 0.04 0.06 0.07 0.02 0.03 0.00 0.00 0.00 0.01 0.01 0.00 0.00 0.00 0.00 0.00 0.00 0.00 0.00 0.00 0.00 0.00 0.00 0.00 0.00 0.00 0.00 0.00 0.00 0.00 0.00 0.00 0.00 0.00 0.00 0.00 0.00 0.00
0.46 0.47 0.50 0.51 0.61 0.61 0.53 0.43 0.30 0.26 0.25 0.40 0.74 0.50 0.12 0.00 0.00 0.04 0.07 0.01 0.00 0.00 0.00 0.00 0.00 0.00 0.00 0.00 0.00 0.00 0.00 0.00 0.00 0.00 0.00 0.00 0.00 0.00 0.00 0.00 0.00 0.00 0.00 0.00 0.00 0.00 0.00
0.31 0.34 0.37 0.44 0.37 0.45 0.52 0.51 0.56 0.57 0.82 1.30 2.10 1.96 0.63 0.06 0.22 0.47 0.26 0.02 0.00 0.00 0.00 0.00 0.00 0.00 0.00 0.00 0.00 0.00 0.00 0.00 0.00 0.00 0.00 0.00 0.00 0.00 0.00 0.00 0.00 0.00 0.00 0.00 0.00 0.00 0.00
0.09 0.14 0.22 0.26 0.33 0.33 0.32 0.41 0.60 0.74 0.97 2.26 3.52 2.72 1.17 0.53 2.03 1.52 0.24 0.00 0.00 0.00 0.00 0.00 0.00 0.00 0.00 0.00 0.00 0.00 0.00 0.00 0.00 0.00 0.00 0.00 0.00 0.00 0.00 0.00 0.00 0.00 0.00 0.00 0.00 0.00 0.00
0.04 0.04 0.06 0.11 0.15 0.24 0.29 0.31 0.47 0.73 1.00 1.81 2.91 2.63 1.99 1.25 1.90 1.25 0.20 0.01 0.00 0.00 0.00 0.00 0.00 0.00 0.00 0.00 0.00 0.00 0.00 0.00 0.00 0.00 0.00 0.00 0.03 0.01 0.00 0.00 0.00 0.00 0.00 0.00 0.00 0.00 0.00
0.01 0.02 0.03 0.03 0.05 0.10 0.19 0.27 0.32 0.51 0.93 1.68 2.53 2.58 2.68 3.12 1.48 0.73 0.15 0.03 0.01 0.00 0.00 0.00 0.00 0.00 0.00 0.00 0.00 0.00 0.00 0.00 0.00 0.00 0.02 0.07 0.16 0.05 0.00 0.00 0.00 0.00 0.00 0.00 0.00 0.00 0.00
0.00 0.01 0.01 0.03 0.03 0.04 0.07 0.16 0.29 0.44 0.83 1.67 2.45 2.27 1.62 1.75 1.23 0.46 0.19 0.10 0.03 0.02 0.01 0.00 0.01 0.00 0.00 0.00 0.00 0.00 0.00 0.00 0.00 0.02 0.06 0.14 0.17 0.03 0.00 0.00 0.00 0.00 0.00 0.00 0.02 0.02 0.00
0.01 0.00 0.00 0.01 0.02 0.03 0.06 0.09 0.18 0.43 1.09 1.71 1.87 1.31 0.90 0.68 0.35 0.27 0.25 0.16 0.05 0.02 0.03 0.03 0.01 0.00 0.00 0.00 0.00 0.00 0.01 0.08 0.07 0.12 0.16 0.20 0.18 0.07 0.03 0.00 0.00 0.00 0.00 0.00 0.00 0.00 0.00
0.01 0.01 0.01 0.02 0.01 0.02 0.02 0.06 0.14 0.32 1.08 1.63 1.30 0.79 0.38 0.33 0.25 0.43 0.57 0.20 0.08 0.05 0.05 0.02 0.01 0.01 0.04 0.04 0.00 0.02 0.14 0.26 0.21 0.21 0.26 0.26 0.24 0.22 0.25 0.03 0.08 0.18 0.01 0.00 0.00 0.00 0.00
0.03 0.03 0.02 0.02 0.02 0.03 0.02 0.02 0.07 0.21 0.77 1.13 0.65 0.42 0.46 0.57 0.33 0.31 0.18 0.06 0.04 0.09 0.19 0.16 0.08 0.19 0.19 0.07 0.15 0.43 0.61 0.53 0.45 0.38 0.23 0.30 0.34 0.51 0.62 0.38 0.70 0.19 0.00 0.00 0.00 0.00 0.00
0.04 0.04 0.05 0.04 0.03 0.02 0.04 0.05 0.05 0.10 0.41 0.93 0.64 0.50 0.73 0.69 0.46 0.24 0.13 0.10 0.09 0.09 0.28 0.56 0.47 0.36 0.16 0.32 0.94 1.32 1.14 0.92 0.75 0.51 0.27 0.19 0.34 0.79 1.02 0.80 0.40 0.03 0.00 0.00 0.00 0.00 0.00
0.05 0.04 0.05 0.05 0.05 0.04 0.04 0.06 0.09 0.06 0.16 0.52 0.68 0.59 0.87 0.91 0.62 0.20 0.10 0.14 0.28 0.27 0.30 0.48 0.44 0.38 0.39 0.65 1.04 1.16 0.79 0.41 0.27 0.15 0.06 0.08 0.28 0.75 1.38 1.01 0.45 0.03 0.00 0.00 0.00 0.00 0.00
0.06 0.07 0.06 0.06 0.06 0.06 0.06 0.06 0.08 0.10 0.13 0.23 0.44 0.46 0.83 1.03 0.60 0.23 0.21 0.16 0.19 0.28 0.45 0.44 0.37 0.56 0.70 0.90 1.11 1.01 0.68 0.33 0.26 0.10 0.02 0.08 0.37 0.68 0.66 0.77 0.50 0.02 0.00 0.00 0.00 0.00 0.00
0.09 0.08 0.08 0.08 0.07 0.08 0.08 0.10 0.09 0.09 0.13 0.17 0.20 0.22 0.61 0.81 0.50 0.22 0.27 0.33 0.20 0.21 0.48 0.50 0.25 0.43 0.73 0.94 1.19 1.02 0.68 0.44 0.22 0.06 0.01 0.04 0.20 0.37 0.31 0.64 0.57 0.02 0.00 0.00 0.00 0.00 0.00
0.07 0.10 0.12 0.11 0.11 0.09 0.09 0.10 0.11 0.10 0.14 0.20 0.20 0.18 0.27 0.61 0.51 0.16 0.16 0.22 0.30 0.33 0.40 0.56 0.43 0.32 0.20 0.37 0.71 0.63 0.75 0.60 0.30 0.17 0.03 0.05 0.05 0.08 0.11 0.12 0.01 0.00 0.00 0.00 0.00 0.00 0.00

GFSGBSN_prec_precacc12_225.txt.gz
Total_Precipitation_Accumulation
0.00 0.00 0.00 0.00 0.00 0.00 0.00 0.00 0.00 0.00 0.00 0.00 0.00 0.00 0.00 0.00 0.00 0.00 0.00 0.00 0.00 0.00 0.00 0.00 0.00 0.00 0.00 0.00 0.00 0.00 0.00 0.00 0.00 0.00 0.00 0.00 0.00 0.00 0.00 0.00 0.00 0.00 0.00 0.00 0.00 0.00 0.00
0.00 0.00 0.00 0.00 0.00 0.00 0.00 0.00 0.00 0.00 0.00 0.00 0.00 0.00 0.00 0.00 0.00 0.00 0.00 0.00 0.00 0.00 0.00 0.00 0.00 0.00 0.00 0.00 0.00 0.00 0.00 0.00 0.00 0.00 0.00 0.00 0.00 0.00 0.00 0.00 0.00 0.00 0.00 0.00 0.00 0.00 0.00
0.00 0.00 0.00 0.00 0.00 0.00 0.00 0.00 0.00 0.00 0.00 0.00 0.00 0.00 0.00 0.00 0.00 0.00 0.00 0.00 0.00 0.00 0.00 0.00 0.00 0.00 0.00 0.00 0.00 0.00 0.00 0.00 0.00 0.00 0.00 0.00 0.00 0.00 0.00 0.00 0.00 0.00 0.00 0.00 0.00 0.00 0.00
0.00 0.00 0.00 0.00 0.00 0.00 0.00 0.00 0.00 0.00 0.00 0.00 0.00 0.00 0.00 0.00 0.00 0.00 0.00 0.00 0.00 0.00 0.00 0.00 0.00 0.00 0.00 0.00 0.00 0.00 0.00 0.00 0.00 0.00 0.00 0.00 0.00 0.00 0.00 0.00 0.00 0.00 0.00 0.00 0.00 0.00 0.00
0.00 0.00 0.00 0.00 0.00 0.00 0.00 0.00 0.00 0.00 0.00 0.00 0.00 0.00 0.00 0.00 0.00 0.00 0.00 0.00 0.00 0.00 0.00 0.00 0.00 0.00 0.00 0.00 0.00 0.00 0.00 0.00 0.00 0.00 0.00 0.00 0.00 0.00 0.00 0.00 0.00 0.00 0.00 0.00 0.00 0.00 0.00
0.00 0.00 0.00 0.00 0.00 0.00 0.00 0.00 0.00 0.00 0.00 0.00 0.00 0.00 0.00 0.00 0.00 0.00 0.00 0.00 0.00 0.00 0.00 0.00 0.00 0.00 0.00 0.00 0.00 0.00 0.00 0.00 0.00 0.00 0.00 0.00 0.00 0.00 0.00 0.00 0.00 0.00 0.00 0.00 0.00 0.00 0.00
0.00 0.00 0.00 0.00 0.00 0.00 0.00 0.00 0.00 0.00 0.00 0.00 0.00 0.00 0.00 0.00 0.00 0.00 0.00 0.00 0.00 0.00 0.00 0.00 0.00 0.00 0.00 0.00 0.00 0.00 0.00 0.00 0.00 0.00 0.00 0.00 0.00 0.00 0.00 0.00 0.00 0.00 0.00 0.00 0.00 0.00 0.00
0.00 0.00 0.00 0.00 0.00 0.00 0.00 0.00 0.00 0.00 0.00 0.00 0.00 0.00 0.00 0.00 0.00 0.00 0.00 0.00 0.00 0.00 0.00 0.00 0.00 0.00 0.00 0.00 0.00 0.00 0.00 0.00 0.00 0.00 0.00 0.00 0.00 0.00 0.00 0.00 0.00 0.00 0.00 0.00 0.00 0.00 0.00
0.00 0.00 0.00 0.00 0.00 0.00 0.00 0.00 0.00 0.00 0.00 0.00 0.00 0.00 0.00 0.00 0.00 0.00 0.00 0.00 0.00 0.00 0.00 0.00 0.00 0.00 0.00 0.00 0.00 0.00 0.00 0.00 0.00 0.00 0.00 0.00 0.00 0.00 0.00 0.00 0.00 0.00 0.00 0.00 0.00 0.00 0.00
0.00 0.00 0.00 0.00 0.00 0.00 0.00 0.00 0.00 0.00 0.00 0.00 0.00 0.00 0.00 0.00 0.00 0.00 0.00 0.00 0.00 0.00 0.00 0.00 0.00 0.00 0.00 0.00 0.00 0.00 0.00 0.00 0.00 0.00 0.00 0.00 0.00 0.00 0.00 0.00 0.00 0.00 0.00 0.00 0.00 0.00 0.00
0.03 0.01 0.00 0.00 0.00 0.00 0.00 0.00 0.00 0.00 0.00 0.00 0.00 0.00 0.00 0.00 0.00 0.00 0.00 0.00 0.00 0.00 0.00 0.00 0.00 0.00 0.00 0.00 0.00 0.00 0.00 0.00 0.00 0.00 0.00 0.00 0.00 0.00 0.00 0.00 0.00 0.00 0.00 0.00 0.00 0.00 0.00
0.53 0.13 0.01 0.00 0.00 0.00 0.00 0.00 0.00 0.00 0.00 0.00 0.00 0.00 0.00 0.00 0.00 0.00 0.00 0.00 0.00 0.00 0.00 0.00 0.00 0.00 0.00 0.00 0.00 0.00 0.00 0.00 0.00 0.00 0.00 0.00 0.00 0.00 0.00 0.00 0.00 0.00 0.00 0.00 0.00 0.00 0.00
1.03 0.83 0.45 0.10 0.01 0.00 0.00 0.00 0.00 0.00 0.00 0.00 0.00 0.00 0.00 0.00 0.00 0.00 0.00 0.00 0.00 0.00 0.00 0.00 0.00 0.00 0.00 0.00 0.00 0.00 0.00 0.00 0.00 0.00 0.00 0.00 0.00 0.00 0.00 0.00 0.00 0.00 0.00 0.00 0.00 0.00 0.00
1.13 0.85 0.77 0.65 0.36 0.06 0.01 0.01 0.00 0.00 0.00 0.00 0.00 0.00 0.00 0.00 0.00 0.00 0.00 0.00 0.00 0.00 0.00 0.00 0.00 0.00 0.00 0.00 0.00 0.00 0.00 0.00 0.00 0.00 0.00 0.00 0.00 0.00 0.00 0.00 0.00 0.00 0.00 0.00 0.00 0.00 0.00
0.89 0.68 0.68 0.69 0.63 0.50 0.20 0.04 0.03 0.02 0.01 0.01 0.03 0.02 0.02 0.00 0.00 0.00 0.00 0.00 0.00 0.00 0.00 0.00 0.00 0.00 0.00 0.00 0.00 0.00 0.00 0.00 0.00 0.00 0.00 0.00 0.00 0.00 0.00 0.00 0.00 0.00 0.00 0.00 0.00 0.00 0.00
0.79 0.72 0.50 0.47 0.59 0.60 0.50 0.34 0.15 0.14 0.15 0.18 0.32 0.29 0.10 0.00 0.00 0.02 0.03 0.00 0.00 0.00 0.00 0.00 0.00 0.00 0.00 0.00 0.00 0.00 0.00 0.00 0.00 0.00 0.00 0.00 0.00 0.00 0.00 0.00 0.00 0.00 0.00 0.00 0.00 0.00 0.00
0.32 0.55 0.61 0.52 0.41 0.47 0.61 0.57 0.51 0.38 0.52 0.83 1.38 1.31 0.42 0.03 0.11 0.19 0.05 0.00 0.00 0.00 0.00 0.00 0.00 0.00 0.00 0.00 0.00 0.00 0.00 0.00 0.00 0.00 0.00 0.00 0.00 0.00 0.00 0.00 0.00 0.00 0.00 0.00 0.00 0.00 0.00
0.11 0.15 0.29 0.46 0.48 0.40 0.47 0.59 0.68 0.77 0.77 1.86 3.04 2.23 0.87 0.39 1.56 1.03 0.13 0.00 0.00 0.00 0.00 0.00 0.00 0.00 0.00 0.00 0.00 0.00 0.00 0.00 0.00 0.00 0.00 0.00 0.00 0.00 0.00 0.00 0.00 0.00 0.00 0.00 0.00 0.00 0.00
0.04 0.06 0.07 0.14 0.25 0.36 0.36 0.43 0.59 0.84 1.08 1.62 2.65 2.48 2.01 1.08 1.63 1.07 0.17 0.01 0.00 0.00 0.00 0.00 0.00 0.00 0.00 0.00 0.00 0.00 0.00 0.00 0.00 0.00 0.00 0.00 0.00 0.00 0.00 0.00 0.00 0.00 0.00 0.00 0.00 0.00 0.00
0.01 0.02 0.03 0.05 0.08 0.18 0.28 0.34 0.47 0.64 1.02 1.70 2.40 2.44 2.68 3.20 1.41 0.67 0.14 0.04 0.01 0.00 0.00 0.00 0.00 0.00 0.00 0.00 0.00 0.00 0.00 0.00 0.00 0.00 0.00 0.00 0.03 0.01 0.00 0.00 0.00 0.00 0.00 0.00 0.00 0.00 0.00
0.01 0.00 0.01 0.02 0.04 0.08 0.13 0.22 0.34 0.53 0.84 1.81 2.44 2.34 1.69 1.84 1.36 0.48 0.19 0.10 0.04 0.02 0.01 0.00 0.01 0.00 0.00 0.00 0.00 0.00 0.00 0.00 0.00 0.00 0.00 0.01 0.06 0.01 0.00 0.00 0.00 0.00 0.00 0.00 0.02 0.02 0.00
0.00 0.00 0.00 0.00 0.01 0.03 0.08 0.14 0.25 0.47 0.99 1.71 1.77 1.20 0.92 0.70 0.39 0.33 0.26 0.15 0.06 0.02 0.03 0.03 0.01 0.00 0.00 0.00 0.00 0.00 0.00 0.03 0.04 0.05 0.05 0.09 0.13 0.06 0.03 0.00 0.00 0.00 0.00 0.00 0.00 0.00 0.00
0.00 0.01 0.00 0.01 0.01 0.01 0.02 0.07 0.17 0.39 1.15 1.43 1.15 0.66 0.30 0.29 0.22 0.39 0.61 0.20 0.05 0.04 0.04 0.02 0.01 0.01 0.04 0.04 0.00 0.01 0.06 0.15 0.13 0.11 0.14 0.14 0.18 0.20 0.25 0.03 0.07 0.22 0.01 0.00 0.00 0.00 0.00
0.02 0.02 0.01 0.01 0.02 0.02 0.02 0.02 0.07 0.25 0.88 1.11 0.58 0.34 0.28 0.35 0.23 0.20 0.13 0.04 0.01 0.06 0.16 0.14 0.08 0.19 0.18 0.07 0.13 0.37 0.49 0.37 0.28 0.27 0.18 0.21 0.26 0.42 0.62 0.38 0.71 0.23 0.00 0.00 0.00 0.00 0.00
0.03 0.03 0.03 0.03 0.02 0.02 0.03 0.05 0.05 0.09 0.46 1.15 0.69 0.47 0.53 0.46 0.29 0.13 0.05 0.04 0.04 0.05 0.20 0.36 0.32 0.29 0.14 0.29 0.84 1.24 1.01 0.73 0.56 0.38 0.21 0.15 0.26 0.73 1.07 0.89 0.49 0.04 0.00 0.00 0.00 0.00 0.00
0.03 0.03 0.03 0.04 0.04 0.03 0.03 0.05 0.08 0.06 0.14 0.62 0.87 0.66 0.83 0.70 0.44 0.14 0.05 0.07 0.15 0.16 0.19 0.30 0.24 0.26 0.33 0.66 1.06 1.18 0.77 0.35 0.20 0.12 0.05 0.05 0.15 0.61 1.38 1.11 0.54 0.04 0.00 0.00 0.00 0.00 0.00
0.05 0.04 0.03 0.04 0.05 0.05 0.05 0.06 0.07 0.11 0.14 0.20 0.55 0.53 0.87 0.93 0.45 0.17 0.18 0.13 0.16 0.24 0.35 0.32 0.21 0.39 0.64 0.98 1.19 1.04 0.63 0.28 0.18 0.06 0.01 0.06 0.24 0.51 0.64 0.80 0.57 0.02 0.00 0.00 0.00 0.00 0.00
0.09 0.07 0.06 0.05 0.05 0.07 0.08 0.10 0.09 0.10 0.16 0.14 0.17 0.19 0.65 0.85 0.43 0.20 0.24 0.27 0.19 0.23 0.51 0.54 0.28 0.41 0.71 1.02 1.32 1.17 0.71 0.40 0.17 0.04 0.00 0.02 0.14 0.27 0.24 0.55 0.60 0.03 0.00 0.00 0.00 0.00 0.00
0.06 0.09 0.10 0.09 0.08 0.08 0.08 0.10 0.11 0.12 0.17 0.19 0.15 0.13 0.22 0.70 0.51 0.11 0.14 0.19 0.29 0.32 0.37 0.60 0.59 0.42 0.27 0.41 0.77 0.66 0.66 0.52 0.26 0.12 0.02 0.02 0.03 0.07 0.11 0.11 0.01 0.00 0.00 0.00 0.00 0.00 0.00

GFSGBSN_prec_precacc12_228.txt.gz
Total_Precipitation_Accumulation
0.00 0.00 0.00 0.00 0.00 0.00 0.00 0.00 0.00 0.00 0.00 0.00 0.00 0.00 0.00 0.00 0.00 0.00 0.00 0.00 0.00 0.00 0.00 0.00 0.00 0.00 0.00 0.00 0.00 0.00 0.00 0.00 0.00 0.00 0.00 0.00 0.00 0.00 0.00 0.00 0.00 0.00 0.00 0.00 0.00 0.00 0.00
0.00 0.00 0.00 0.00 0.00 0.00 0.00 0.00 0.00 0.00 0.00 0.00 0.00 0.00 0.00 0.00 0.00 0.00 0.00 0.00 0.00 0.00 0.00 0.00 0.00 0.00 0.00 0.00 0.00 0.00 0.00 0.00 0.00 0.00 0.00 0.00 0.00 0.00 0.00 0.00 0.00 0.00 0.00 0.00 0.00 0.00 0.00
0.00 0.00 0.00 0.00 0.00 0.00 0.00 0.00 0.00 0.00 0.00 0.00 0.00 0.00 0.00 0.00 0.00 0.00 0.00 0.00 0.00 0.00 0.00 0.00 0.00 0.00 0.00 0.00 0.00 0.00 0.00 0.00 0.00 0.00 0.00 0.00 0.00 0.00 0.00 0.00 0.00 0.00 0.00 0.00 0.00 0.00 0.00
0.00 0.00 0.00 0.00 0.00 0.00 0.00 0.00 0.00 0.00 0.00 0.00 0.00 0.00 0.00 0.00 0.00 0.00 0.00 0.00 0.00 0.00 0.00 0.00 0.00 0.00 0.00 0.00 0.00 0.00 0.00 0.00 0.00 0.00 0.00 0.00 0.00 0.00 0.00 0.00 0.00 0.00 0.00 0.00 0.00 0.00 0.00
0.00 0.00 0.00 0.00 0.00 0.00 0.00 0.00 0.00 0.00 0.00 0.00 0.00 0.00 0.00 0.00 0.00 0.00 0.00 0.00 0.00 0.00 0.00 0.00 0.00 0.00 0.00 0.00 0.00 0.00 0.00 0.00 0.00 0.00 0.00 0.00 0.00 0.00 0.00 0.00 0.00 0.00 0.00 0.00 0.00 0.00 0.00
0.02 0.00 0.00 0.00 0.00 0.00 0.00 0.00 0.00 0.00 0.00 0.00 0.00 0.00 0.00 0.00 0.00 0.00 0.00 0.00 0.00 0.00 0.00 0.00 0.00 0.00 0.00 0.00 0.00 0.00 0.00 0.00 0.00 0.00 0.00 0.00 0.00 0.00 0.00 0.00 0.00 0.00 0.00 0.00 0.00 0.00 0.00
0.03 0.01 0.00 0.00 0.00 0.00 0.00 0.00 0.00 0.00 0.00 0.00 0.00 0.00 0.00 0.00 0.00 0.00 0.00 0.00 0.00 0.00 0.00 0.00 0.00 0.00 0.00 0.00 0.00 0.00 0.00 0.00 0.00 0.00 0.00 0.00 0.00 0.00 0.00 0.00 0.00 0.00 0.00 0.00 0.00 0.00 0.00
0.03 0.02 0.00 0.00 0.00 0.00 0.00 0.00 0.00 0.00 0.00 0.00 0.00 0.00 0.00 0.00 0.00 0.00 0.00 0.00 0.00 0.00 0.00 0.00 0.00 0.00 0.00 0.00 0.00 0.00 0.00 0.00 0.00 0.00 0.00 0.00 0.00 0.00 0.00 0.00 0.00 0.00 0.00 0.00 0.00 0.00 0.00
0.08 0.02 0.01 0.00 0.00 0.00 0.00 0.00 0.00 0.00 0.00 0.00 0.00 0.00 0.00 0.00 0.00 0.00 0.00 0.00 0.00 0.00 0.00 0.00 0.00 0.00 0.00 0.00 0.00 0.00 0.00 0.00 0.00 0.00 0.00 0.00 0.00 0.00 0.00 0.00 0.00 0.00 0.00 0.00 0.00 0.00 0.00
0.14 0.10 0.02 0.00 0.00 0.00 0.00 0.00 0.00 0.00 0.00 0.00 0.00 0.00 0.00 0.00 0.00 0.00 0.00 0.00 0.00 0.00 0.00 0.00 0.00 0.00 0.00 0.00 0.00 0.00 0.00 0.00 0.00 0.00 0.00 0.00 0.00 0.00 0.00 0.00 0.00 0.00 0.00 0.00 0.00 0.00 0.00
0.11 0.07 0.05 0.01 0.00 0.00 0.00 0.00 0.00 0.00 0.00 0.00 0.00 0.00 0.00 0.00 0.00 0.00 0.00 0.00 0.00 0.00 0.00 0.00 0.00 0.00 0.00 0.00 0.00 0.00 0.00 0.00 0.00 0.00 0.00 0.00 0.00 0.00 0.00 0.00 0.00 0.00 0.00 0.00 0.00 0.00 0.00
0.52 0.14 0.02 0.01 0.00 0.00 0.00 0.00 0.00 0.00 0.00 0.00 0.00 0.00 0.00 0.00 0.00 0.00 0.00 0.00 0.00 0.00 0.00 0.00 0.00 0.00 0.00 0.00 0.00 0.00 0.00 0.00 0.00 0.00 0.00 0.00 0.00 0.00 0.00 0.00 0.00 0.00 0.00 0.00 0.00 0.00 0.00
1.04 0.75 0.38 0.08 0.01 0.01 0.00 0.00 0.00 0.00 0.00 0.00 0.00 0.00 0.00 0.00 0.00 0.00 0.00 0.00 0.00 0.00 0.00 0.00 0.00 0.00 0.00 0.00 0.00 0.00 0.00 0.00 0.00 0.00 0.00 0.00 0.00 0.00 0.00 0.00 0.00 0.00 0.00 0.00 0.00 0.00 0.00
1.42 1.07 0.68 0.55 0.29 0.04 0.01 0.01 0.00 0.00 0.00 0.00 0.00 0.00 0.00 0.00 0.00 0.00 0.00 0.00 0.00 0.00 0.00 0.00 0.00 0.00 0.00 0.00 0.00 0.00 0.00 0.00 0.00 0.00 0.00 0.00 0.00 0.00 0.00 0.00 0.00 0.00 0.00 0.00 0.00 0.00 0.00
1.10 1.21 0.93 0.67 0.54 0.41 0.17 0.04 0.03 0.02 0.00 0.00 0.01 0.02 0.02 0.00 0.00 0.00 0.01 0.00 0.00 0.00 0.00 0.00 0.00 0.00 0.00 0.00 0.00 0.00 0.00 0.00 0.00 0.00 0.00 0.00 0.00 0.00 0.00 0.00 0.00 0.00 0.00 0.00 0.00 0.00 0.00
1.04 0.99 1.13 0.70 0.61 0.51 0.42 0.31 0.12 0.11 0.12 0.09 0.15 0.13 0.06 0.00 0.00 0.00 0.03 0.00 0.00 0.00 0.00 0.00 0.00 0.00 0.00 0.00 0.00 0.00 0.00 0.00 0.00 0.00 0.00 0.00 0.00 0.00 0.00 0.00 0.00 0.00 0.00 0.00 0.00 0.00 0.00
0.53 0.91 1.02 1.11 0.62 0.42 0.50 0.44 0.39 0.25 0.33 0.52 0.74 0.69 0.16 0.01 0.09 0.12 0.02 0.00 0.00 0.00 0.00 0.00 0.00 0.00 0.00 0.00 0.00 0.00 0.00 0.00 0.00 0.00 0.00 0.00 0.00 0.00 0.00 0.00 0.00 0.00 0.00 0.00 0.00 0.00 0.00
0.31 0.40 0.69 0.98 0.93 0.47 0.38 0.44 0.48 0.54 0.55 1.46 2.24 1.44 0.44 0.17 0.89 0.64 0.07 0.00 0.00 0.00 0.00 0.00 0.00 0.00 0.00 0.00 0.00 0.00 0.00 0.00 0.00 0.00 0.00 0.00 0.00 0.00 0.00 0.00 0.00 0.00 0.00 0.00 0.00 0.00 0.00
0.18 0.27 0.34 0.48 0.70 0.70 0.41 0.35 0.40 0.65 0.89 1.41 2.25 1.94 1.57 0.63 1.00 0.59 0.08 0.00 0.00 0.00 0.00 0.00 0.00 0.00 0.00 0.00 0.00 0.00 0.00 0.00 0.00 0.00 0.00 0.00 0.00 0.00 0.00 0.00 0.00 0.00 0.00 0.00 0.00 0.00 0.00
0.17 0.16 0.21 0.25 0.36 0.59 0.53 0.44 0.41 0.55 0.95 1.61 2.17 2.09 2.50 2.66 0.95 0.40 0.08 0.03 0.01 0.00 0.00 0.00 0.00 0.00 0.00 0.00 0.00 0.00 0.00 0.00 0.00 0.00 0.00 0.00 0.00 0.00 0.00 0.00 0.00 0.00 0.00 0.00 0.00 0.00 0.00
0.11 0.14 0.12 0.13 0.17 0.28 0.37 0.47 0.45 0.56 0.91 1.97 2.50 2.32 1.64 1.68 1.04 0.25 0.07 0.04 0.02 0.01 0.01 0.00 0.01 0.00 0.00 0.00 0.00 0.00 0.00 0.00 0.00 0.00 0.00 0.00 0.00 0.00 0.00 0.00 0.00 0.00 0.00 0.00 0.02 0.01 0.00
0.03 0.06 0.08 0.06 0.07 0.13 0.22 0.31 0.36 0.55 1.17 2.10 2.13 1.47 1.11 0.79 0.37 0.25 0.13 0.06 0.02 0.01 0.02 0.02 0.01 0.00 0.00 0.00 0.00 0.00 0.00 0.01 0.04 0.05 0.05 0.07 0.09 0.04 0.02 0.00 0.00 0.00 0.00 0.00 0.00 0.00 0.00
0.01 0.02 0.04 0.05 0.04 0.05 0.10 0.20 0.33 0.56 1.24 1.64 1.45 0.94 0.49 0.46 0.31 0.43 0.50 0.13 0.01 0.01 0.01 0.00 0.00 0.00 0.02 0.01 0.00 0.00 0.04 0.17 0.11 0.09 0.11 0.10 0.13 0.13 0.16 0.01 0.05 0.18 0.01 0.00 0.00 0.00 0.00
0.01 0.02 0.02 0.02 0.03 0.02 0.05 0.11 0.20 0.42 1.00 1.10 0.72 0.48 0.42 0.48 0.32 0.29 0.12 0.03 0.00 0.00 0.01 0.01 0.01 0.06 0.07 0.03 0.07 0.22 0.34 0.30 0.21 0.19 0.15 0.17 0.19 0.28 0.47 0.28 0.65 0.23 0.00 0.00 0.00 0.00 0.00
0.02 0.02 0.02 0.02 0.01 0.02 0.03 0.06 0.11 0.20 0.63 1.18 0.76 0.59 0.60 0.47 0.25 0.14 0.06 0.03 0.02 0.04 0.07 0.08 0.07 0.06 0.03 0.13 0.67 1.11 0.85 0.58 0.40 0.26 0.16 0.13 0.21 0.60 0.89 0.73 0.44 0.04 0.00 0.00 0.00 0.00 0.00
0.03 0.03 0.03 0.03 0.03 0.02 0.02 0.04 0.10 0.11 0.26 0.79 0.94 0.73 0.89 0.68 0.39 0.13 0.04 0.05 0.07 0.08 0.12 0.18 0.12 0.08 0.16 0.47 0.98 1.19 0.76 0.31 0.14 0.08 0.04 0.04 0.11 0.49 1.27 1.02 0.51 0.04 0.00 0.00 0.00 0.00 0.00
0.04 0.04 0.04 0.04 0.03 0.03 0.04 0.04 0.07 0.12 0.17 0.23 0.60 0.55 0.85 0.86 0.47 0.19 0.18 0.12 0.11 0.15 0.23 0.22 0.13 0.20 0.43 0.91 1.26 1.01 0.57 0.22 0.11 0.03 0.00 0.04 0.14 0.38 0.63 0.74 0.49 0.02 0.00 0.00 0.00 0.00 0.00
0.07 0.06 0.05 0.05 0.04 0.04 0.05 0.07 0.07 0.09 0.16 0.15 0.16 0.16 0.61 0.77 0.42 0.23 0.26 0.29 0.21 0.22 0.41 0.47 0.25 0.33 0.57 0.95 1.33 1.25 0.75 0.36 0.13 0.02 0.00 0.01 0.08 0.15 0.16 0.40 0.53 0.04 0.00 0.00 0.00 0.00 0.00
0.04 0.07 0.09 0.07 0.06 0.04 0.04 0.06 0.08 0.10 0.15 0.17 0.14 0.10 0.16 0.59 0.49 0.10 0.13 0.21 0.31 0.37 0.46 0.66 0.62 0.42 0.30 0.44 0.78 0.69 0.62 0.43 0.21 0.09 0.01 0.01 0.02 0.05 0.07 0.10 0.02 0.00 0.00 0.00 0.00 0.00 0.00

GFSGBSN_prec_precacc12_231.txt.gz
Total_Precipitation_Accumulation
0.01 0.00 0.00 0.00 0.00 0.00 0.00 0.00 0.00 0.00 0.00 0.00 0.00 0.00 0.00 0.00 0.00 0.00 0.00 0.00 0.00 0.00 0.00 0.00 0.00 0.00 0.00 0.00 0.00 0.00 0.00 0.00 0.00 0.00 0.00 0.00 0.00 0.00 0.00 0.00 0.00 0.00 0.00 0.00 0.00 0.00 0.00
0.02 0.01 0.00 0.00 0.00 0.00 0.00 0.00 0.00 0.00 0.00 0.00 0.00 0.00 0.00 0.00 0.00 0.00 0.00 0.00 0.00 0.00 0.00 0.00 0.00 0.00 0.00 0.00 0.00 0.00 0.00 0.00 0.00 0.00 0.00 0.00 0.00 0.00 0.00 0.00 0.00 0.00 0.00 0.00 0.00 0.00 0.00
0.01 0.00 0.00 0.00 0.00 0.00 0.00 0.00 0.00 0.00 0.00 0.00 0.00 0.00 0.00 0.00 0.00 0.00 0.00 0.00 0.00 0.00 0.00 0.00 0.00 0.00 0.00 0.00 0.00 0.00 0.00 0.00 0.00 0.00 0.00 0.00 0.00 0.00 0.00 0.00 0.00 0.00 0.00 0.00 0.00 0.00 0.00
0.03 0.01 0.00 0.00 0.00 0.00 0.00 0.00 0.00 0.00 0.00 0.00 0.00 0.00 0.00 0.00 0.00 0.00 0.00 0.00 0.00 0.00 0.00 0.00 0.00 0.00 0.00 0.00 0.00 0.00 0.00 0.00 0.00 0.00 0.00 0.00 0.00 0.00 0.00 0.00 0.00 0.00 0.00 0.00 0.00 0.00 0.00
0.05 0.04 0.03 0.00 0.00 0.00 0.00 0.00 0.00 0.00 0.00 0.00 0.00 0.00 0.00 0.00 0.00 0.00 0.00 0.00 0.00 0.00 0.00 0.00 0.00 0.00 0.00 0.00 0.00 0.00 0.00 0.00 0.00 0.00 0.00 0.00 0.00 0.00 0.00 0.00 0.00 0.00 0.00 0.00 0.00 0.00 0.00
0.07 0.05 0.04 0.02 0.00 0.00 0.00 0.00 0.00 0.00 0.00 0.00 0.00 0.00 0.00 0.00 0.00 0.00 0.00 0.00 0.00 0.00 0.00 0.00 0.00 0.00 0.00 0.00 0.00 0.00 0.00 0.00 0.00 0.00 0.00 0.00 0.00 0.00 0.00 0.00 0.00 0.00 0.00 0.00 0.00 0.00 0.00
0.09 0.07 0.05 0.04 0.01 0.00 0.00 0.00 0.00 0.00 0.00 0.00 0.00 0.00 0.00 0.00 0.00 0.00 0.00 0.00 0.00 0.00 0.00 0.00 0.00 0.00 0.00 0.00 0.00 0.00 0.00 0.00 0.00 0.00 0.00 0.00 0.00 0.00 0.00 0.00 0.00 0.00 0.00 0.00 0.00 0.00 0.00
0.07 0.08 0.07 0.04 0.02 0.00 0.00 0.00 0.00 0.00 0.00 0.00 0.00 0.00 0.00 0.00 0.00 0.00 0.00 0.00 0.00 0.00 0.00 0.00 0.00 0.00 0.00 0.00 0.00 0.00 0.00 0.00 0.00 0.00 0.00 0.00 0.00 0.00 0.00 0.00 0.00 0.00 0.00 0.00 0.00 0.00 0.00
0.14 0.06 0.05 0.05 0.03 0.01 0.00 0.00 0.00 0.00 0.00 0.00 0.00 0.00 0.00 0.00 0.00 0.00 0.00 0.00 0.00 0.00 0.00 0.00 0.00 0.00 0.00 0.00 0.00 0.00 0.00 0.00 0.00 0.00 0.00 0.00 0.00 0.00 0.00 0.00 0.00 0.00 0.00 0.00 0.00 0.00 0.00
0.17 0.16 0.07 0.04 0.05 0.03 0.00 0.00 0.00 0.00 0.00 0.00 0.00 0.00 0.00 0.00 0.00 0.00 0.00 0.00 0.00 0.00 0.00 0.00 0.00 0.00 0.00 0.00 0.00 0.00 0.00 0.00 0.00 0.00 0.00 0.00 0.00 0.00 0.00 0.00 0.00 0.00 0.00 0.00 0.00 0.00 0.00
0.12 0.12 0.13 0.08 0.04 0.03 0.00 0.00 0.00 0.00 0.00 0.00 0.00 0.00 0.00 0.00 0.00 0.00 0.00 0.00 0.00 0.00 0.00 0.00 0.00 0.00 0.00 0.00 0.00 0.00 0.00 0.00 0.00 0.00 0.00 0.00 0.00 0.00 0.00 0.00 0.00 0.00 0.00 0.00 0.00 0.00 0.00
0.34 0.13 0.08 0.08 0.07 0.03 0.01 0.00 0.00 0.00 0.00 0.00 0.00 0.00 0.00 0.00 0.00 0.00 0.00 0.00 0.00 0.00 0.00 0.00 0.00 0.00 0.00 0.00 0.00 0.00 0.00 0.00 0.00 0.00 0.00 0.00 0.00 0.00 0.00 0.00 0.00 0.00 0.00 0.00 0.00 0.00 0.00
0.77 0.49 0.21 0.07 0.07 0.07 0.01 0.00 0.00 0.00 0.00 0.00 0.00 0.00 0.00 0.00 0.00 0.00 0.00 0.00 0.00 0.00 0.00 0.00 0.00 0.00 0.00 0.00 0.00 0.00 0.00 0.00 0.00 0.00 0.00 0.00 0.00 0.00 0.00 0.00 0.00 0.00 0.00 0.00 0.00 0.00 0.00
1.02 0.77 0.53 0.36 0.17 0.09 0.06 0.01 0.00 0.00 0.00 0.00 0.00 0.00 0.00 0.00 0.00 0.00 0.00 0.00 0.00 0.00 0.00 0.00 0.00 0.00 0.00 0.00 0.00 0.00 0.00 0.00 0.00 0.00 0.00 0.00 0.00 0.00 0.00 0.00 0.00 0.00 0.00 0.00 0.00 0.00 0.00
1.04 1.05 0.74 0.54 0.45 0.31 0.15 0.03 0.01 0.01 0.00 0.00 0.00 0.02 0.02 0.00 0.00 0.00 0.01 0.00 0.00 0.00 0.00 0.00 0.00 0.00 0.00 0.00 0.00 0.00 0.00 0.00 0.00 0.00 0.00 0.00 0.00 0.00 0.00 0.00 0.00 0.00 0.00 0.00 0.00 0.00 0.00
1.19 1.05 1.14 0.70 0.56 0.49 0.37 0.23 0.09 0.06 0.08 0.05 0.03 0.06 0.05 0.00 0.00 0.01 0.05 0.00 0.00 0.00 0.00 0.00 0.00 0.00 0.00 0.00 0.00 0.00 0.00 0.00 0.00 0.00 0.00 0.00 0.00 0.00 0.00 0.00 0.00 0.00 0.00 0.00 0.00 0.00 0.00
0.78 1.08 1.11 1.21 0.68 0.52 0.51 0.41 0.32 0.17 0.23 0.37 0.44 0.31 0.05 0.03 0.07 0.07 0.02 0.00 0.00 0.00 0.00 0.00 0.00 0.00 0.00 0.00 0.00 0.00 0.00 0.00 0.00 0.00 0.00 0.00 0.00 0.00 0.00 0.00 0.00 0.00 0.00 0.00 0.00 0.00 0.00
0.55 0.65 0.87 1.09 1.20 0.70 0.54 0.47 0.46 0.46 0.40 0.86 1.38 0.84 0.28 0.09 0.52 0.28 0.03 0.00 0.00 0.00 0.00 0.00 0.00 0.00 0.00 0.00 0.00 0.00 0.00 0.00 0.00 0.00 0.00 0.00 0.00 0.00 0.00 0.00 0.00 0.00 0.00 0.00 0.00 0.00 0.00
0.39 0.53 0.55 0.65 1.06 1.23 0.71 0.59 0.46 0.58 0.74 0.93 1.35 1.35 1.26 0.36 0.54 0.24 0.03 0.00 0.00 0.00 0.00 0.00 0.00 0.00 0.00 0.00 0.00 0.00 0.00 0.00 0.00 0.00 0.00 0.00 0.00 0.00 0.00 0.00 0.00 0.00 0.00 0.00 0.00 0.00 0.00
0.40 0.38 0.40 0.44 0.59 1.11 1.12 0.81 0.59 0.51 0.76 1.22 1.58 1.43 1.94 1.95 0.59 0.21 0.03 0.02 0.00 0.00 0.00 0.00 0.00 0.00 0.00 0.00 0.00 0.00 0.00 0.00 0.00 0.00 0.00 0.00 0.00 0.00 0.00 0.00 0.00 0.00 0.00 0.00 0.00 0.00 0.00
0.30 0.32 0.30 0.28 0.33 0.57 1.09 1.08 0.73 0.60 0.79 1.70 1.98 1.71 1.25 1.27 0.69 0.12 0.02 0.01 0.01 0.00 0.00 0.00 0.00 0.00 0.00 0.00 0.00 0.00 0.00 0.00 0.00 0.00 0.00 0.00 0.00 0.00 0.00 0.00 0.00 0.00 0.00 0.00 0.00 0.00 0.00
0.15 0.19 0.23 0.20 0.19 0.33 0.72 1.06 0.99 0.79 1.18 1.93 1.94 1.23 0.88 0.62 0.30 0.18 0.10 0.03 0.01 0.01 0.01 0.00 0.00 0.00 0.00 0.00 0.00 0.00 0.00 0.01 0.02 0.02 0.02 0.05 0.07 0.03 0.02 0.00 0.00 0.00 0.00 0.00 0.00 0.00 0.00
0.16 0.12 0.14 0.17 0.13 0.18 0.37 0.68 0.90 1.07 1.68 1.93 1.59 0.94 0.48 0.42 0.28 0.35 0.35 0.08 0.00 0.00 0.01 0.00 0.00 0.00 0.00 0.00 0.00 0.00 0.02 0.13 0.06 0.03 0.05 0.05 0.08 0.10 0.14 0.01 0.04 0.16 0.01 0.00 0.00 0.00 0.00
0.08 0.12 0.11 0.14 0.12 0.10 0.21 0.38 0.56 0.99 1.66 1.60 1.15 0.72 0.56 0.53 0.35 0.27 0.09 0.02 0.01 0.00 0.00 0.00 0.00 0.01 0.00 0.00 0.03 0.11 0.16 0.13 0.07 0.06 0.06 0.08 0.11 0.20 0.38 0.21 0.53 0.21 0.00 0.00 0.00 0.00 0.00
0.06 0.06 0.06 0.10 0.11 0.08 0.13 0.21 0.34 0.55 1.03 1.35 1.02 0.78 0.70 0.50 0.27 0.17 0.09 0.05 0.03 0.05 0.04 0.04 0.02 0.01 0.00 0.05 0.53 0.85 0.56 0.34 0.16 0.05 0.04 0.06 0.12 0.44 0.65 0.53 0.34 0.03 0.00 0.00 0.00 0.00 0.00
0.04 0.05 0.05 0.07 0.10 0.07 0.05 0.08 0.19 0.32 0.49 0.86 0.93 0.80 0.87 0.60 0.32 0.12 0.08 0.11 0.16 0.16 0.16 0.14 0.08 0.04 0.11 0.41 1.05 1.21 0.68 0.26 0.08 0.03 0.01 0.01 0.05 0.35 1.06 0.80 0.40 0.04 0.00 0.00 0.00 0.00 0.00
0.03 0.04 0.04 0.05 0.06 0.05 0.04 0.03 0.06 0.18 0.24 0.28 0.62 0.51 0.71 0.73 0.40 0.17 0.19 0.15 0.17 0.24 0.30 0.20 0.12 0.18 0.42 0.93 1.25 0.98 0.50 0.17 0.05 0.01 0.00 0.02 0.08 0.27 0.60 0.67 0.38 0.02 0.00 0.00 0.00 0.00 0.00
0.01 0.02 0.03 0.04 0.04 0.03 0.04 0.04 0.04 0.07 0.16 0.14 0.18 0.23 0.51 0.66 0.43 0.24 0.30 0.31 0.22 0.22 0.41 0.46 0.26 0.36 0.46 0.87 1.25 1.15 0.66 0.31 0.09 0.01 0.00 0.01 0.05 0.09 0.12 0.28 0.42 0.03 0.00 0.00 0.00 0.00 0.00
0.01 0.03 0.05 0.04 0.05 0.04 0.04 0.04 0.05 0.06 0.12 0.16 0.12 0.11 0.20 0.54 0.47 0.16 0.19 0.26 0.34 0.38 0.43 0.62 0.60 0.41 0.32 0.42 0.65 0.56 0.49 0.32 0.14 0.04 0.00 0.01 0.01 0.02 0.04 0.08 0.02 0.00 0.00 0.00 0.00 0.00 0.00

GFSGBSN_prec_precacc12_234.txt.gz
Total_Precipitation_Accumulation
0.03 0.02 0.01 0.01 0.00 0.00 0.00 0.00 0.00 0.00 0.00 0.00 0.00 0.00 0.00 0.00 0.00 0.00 0.00 0.00 0.00 0.00 0.00 0.00 0.00 0.00 0.00 0.00 0.00 0.00 0.00 0.00 0.00 0.00 0.00 0.00 0.00 0.00 0.00 0.00 0.00 0.00 0.00 0.00 0.00 0.00 0.00
0.02 0.02 0.02 0.01 0.01 0.00 0.00 0.00 0.00 0.00 0.00 0.00 0.00 0.00 0.00 0.00 0.00 0.00 0.00 0.00 0.00 0.00 0.00 0.00 0.00 0.00 0.00 0.00 0.00 0.00 0.00 0.00 0.00 0.00 0.00 0.00 0.00 0.00 0.00 0.00 0.00 0.00 0.00 0.00 0.00 0.00 0.00
0.02 0.01 0.01 0.01 0.01 0.00 0.00 0.00 0.00 0.00 0.00 0.00 0.00 0.00 0.00 0.00 0.00 0.00 0.00 0.00 0.00 0.00 0.00 0.00 0.00 0.00 0.00 0.00 0.00 0.00 0.00 0.00 0.00 0.00 0.00 0.00 0.00 0.00 0.00 0.00 0.00 0.00 0.00 0.00 0.00 0.00 0.00
0.05 0.03 0.01 0.01 0.00 0.00 0.00 0.00 0.00 0.00 0.00 0.00 0.00 0.00 0.00 0.00 0.00 0.00 0.00 0.00 0.00 0.00 0.00 0.00 0.00 0.00 0.00 0.00 0.00 0.00 0.00 0.00 0.00 0.00 0.00 0.00 0.00 0.00 0.00 0.00 0.00 0.00 0.00 0.00 0.00 0.00 0.00
0.07 0.08 0.05 0.02 0.01 0.01 0.00 0.00 0.00 0.00 0.00 0.00 0.00 0.00 0.00 0.00 0.00 0.00 0.00 0.00 0.00 0.00 0.00 0.00 0.00 0.00 0.00 0.00 0.00 0.00 0.00 0.00 0.00 0.00 0.00 0.00 0.00 0.00 0.00 0.00 0.00 0.00 0.00 0.00 0.00 0.00 0.00
0.08 0.07 0.07 0.05 0.03 0.02 0.01 0.00 0.00 0.00 0.00 0.00 0.00 0.00 0.00 0.00 0.00 0.00 0.00 0.00 0.00 0.00 0.00 0.00 0.00 0.00 0.00 0.00 0.00 0.00 0.00 0.00 0.00 0.00 0.00 0.00 0.00 0.00 0.00 0.00 0.00 0.00 0.00 0.00 0.00 0.00 0.00
0.09 0.08 0.08 0.07 0.06 0.03 0.01 0.01 0.00 0.00 0.00 0.00 0.00 0.00 0.00 0.00 0.00 0.00 0.00 0.00 0.00 0.00 0.00 0.00 0.00 0.00 0.00 0.00 0.00 0.00 0.00 0.00 0.00 0.00 0.00 0.00 0.00 0.00 0.00 0.00 0.00 0.00 0.00 0.00 0.00 0.00 0.00
0.07 0.09 0.09 0.08 0.07 0.07 0.03 0.01 0.00 0.00 0.00 0.00 0.00 0.00 0.00 0.00 0.00 0.00 0.00 0.00 0.00 0.00 0.00 0.00 0.00 0.00 0.00 0.00 0.00 0.00 0.00 0.00 0.00 0.00 0.00 0.00 0.00 0.00 0.00 0.00 0.00 0.00 0.00 0.00 0.00 0.00 0.00
0.14 0.06 0.07 0.09 0.09 0.07 0.06 0.03 0.01 0.00 0.00 0.00 0.00 0.00 0.00 0.00 0.00 0.00 0.00 0.00 0.00 0.00 0.00 0.00 0.00 0.00 0.00 0.00 0.00 0.00 0.00 0.00 0.00 0.00 0.00 0.00 0.00 0.00 0.00 0.00 0.00 0.00 0.00 0.00 0.00 0.00 0.00
0.18 0.16 0.07 0.06 0.09 0.10 0.08 0.05 0.02 0.01 0.00 0.00 0.00 0.00 0.00 0.00 0.00 0.00 0.00 0.00 0.00 0.00 0.00 0.00 0.00 0.00 0.00 0.00 0.00 0.00 0.00 0.00 0.00 0.00 0.00 0.00 0.00 0.00 0.00 0.00 0.00 0.00 0.00 0.00 0.00 0.00 0.00
0.11 0.12 0.13 0.08 0.06 0.10 0.09 0.08 0.04 0.01 0.00 0.00 0.00 0.00 0.00 0.00 0.00 0.00 0.00 0.00 0.00 0.00 0.00 0.00 0.00 0.00 0.00 0.00 0.00 0.00 0.00 0.00 0.00 0.00 0.00 0.00 0.00 0.00 0.00 0.00 0.00 0.00 0.00 0.00 0.00 0.00 0.00
0.21 0.11 0.09 0.09 0.08 0.05 0.09 0.10 0.08 0.03 0.00 0.00 0.00 0.00 0.00 0.00 0.00 0.00 0.00 0.00 0.00 0.00 0.00 0.00 0.00 0.00 0.00 0.00 0.00 0.00 0.00 0.00 0.00 0.00 0.00 0.00 0.00 0.00 0.00 0.00 0.00 0.00 0.00 0.00 0.00 0.00 0.00
0.57 0.18 0.08 0.06 0.07 0.08 0.05 0.08 0.12 0.05 0.00 0.00 0.00 0.00 0.00 0.00 0.00 0.00 0.00 0.00 0.00 0.00 0.00 0.00 0.00 0.00 0.00 0.00 0.00 0.00 0.00 0.00 0.00 0.00 0.00 0.00 0.00 0.00 0.00 0.00 0.00 0.00 0.00 0.00 0.00 0.00 0.00
0.84 0.62 0.20 0.12 0.07 0.09 0.10 0.06 0.08 0.10 0.02 0.00 0.00 0.00 0.00 0.00 0.00 0.00 0.00 0.00 0.00 0.00 0.00 0.00 0.00 0.00 0.00 0.00 0.00 0.00 0.00 0.00 0.00 0.00 0.00 0.00 0.00 0.00 0.00 0.00 0.00 0.00 0.00 0.00 0.00 0.00 0.00
0.82 0.78 0.54 0.24 0.16 0.12 0.11 0.11 0.09 0.09 0.04 0.01 0.00 0.02 0.02 0.00 0.00 0.02 0.01 0.00 0.00 0.00 0.00 0.00 0.00 0.00 0.00 0.00 0.00 0.00 0.00 0.00 0.00 0.00 0.00 0.00 0.00 0.00 0.00 0.00 0.00 0.00 0.00 0.00 0.00 0.00 0.00
1.02 0.85 0.89 0.48 0.30 0.18 0.17 0.17 0.16 0.16 0.08 0.03 0.02 0.08 0.04 0.01 0.03 0.06 0.09 0.00 0.00 0.00 0.00 0.00 0.00 0.00 0.00 0.00 0.00 0.00 0.00 0.00 0.00 0.00 0.00 0.00 0.00 0.00 0.00 0.00 0.00 0.00 0.00 0.00 0.00 0.00 0.00
0.77 1.03 0.99 1.02 0.61 0.38 0.31 0.28 0.32 0.37 0.27 0.10 0.12 0.13 0.03 0.05 0.09 0.15 0.04 0.00 0.00 0.00 0.00 0.00 0.00 0.00 0.00 0.00 0.00 0.00 0.00 0.00 0.00 0.00 0.00 0.00 0.00 0.00 0.00 0.00 0.00 0.00 0.00 0.00 0.00 0.00 0.00
0.56 0.72 0.88 1.06 1.12 0.71 0.59 0.46 0.43 0.63 0.62 0.57 0.51 0.27 0.09 0.11 0.21 0.07 0.01 0.00 0.00 0.00 0.00 0.00 0.00 0.00 0.00 0.00 0.00 0.00 0.00 0.00 0.00 0.00 0.00 0.00 0.00 0.00 0.00 0.00 0.00 0.00 0.00 0.00 0.00 0.00 0.00
0.41 0.60 0.66 0.72 1.07 1.19 0.73 0.68 0.56 0.73 1.02 0.74 0.55 0.58 0.77 0.17 0.14 0.09 0.02 0.00 0.00 0.00 0.00 0.00 0.00 0.00 0.00 0.00 0.00 0.00 0.00 0.00 0.00 0.00 0.00 0.00 0.00 0.00 0.00 0.00 0.00 0.00 0.00 0.00 0.00 0.00 0.00
0.44 0.46 0.54 0.63 0.73 1.14 1.15 0.93 0.75 0.69 1.05 1.29 0.93 0.81 1.24 1.16 0.24 0.07 0.02 0.01 0.00 0.00 0.00 0.00 0.00 0.00 0.00 0.00 0.00 0.00 0.00 0.00 0.00 0.00 0.00 0.00 0.00 0.00 0.00 0.00 0.00 0.00 0.00 0.00 0.00 0.00 0.00
0.36 0.42 0.48 0.54 0.67 0.76 1.16 1.15 0.98 0.83 0.95 1.70 1.44 1.10 0.80 0.75 0.38 0.08 0.01 0.01 0.01 0.00 0.00 0.00 0.00 0.00 0.00 0.00 0.00 0.00 0.00 0.00 0.00 0.00 0.00 0.00 0.00 0.00 0.00 0.00 0.00 0.00 0.00 0.00 0.00 0.00 0.00
0.23 0.30 0.43 0.50 0.52 0.71 0.91 1.14 1.14 1.08 1.30 1.99 1.61 0.93 0.59 0.41 0.21 0.16 0.08 0.03 0.01 0.00 0.01 0.00 0.00 0.00 0.00 0.00 0.00 0.00 0.00 0.01 0.01 0.00 0.00 0.01 0.00 0.00 0.00 0.00 0.00 0.00 0.00 0.00 0.00 0.00 0.00
0.22 0.25 0.35 0.43 0.46 0.59 0.73 0.94 1.06 1.28 1.88 2.13 1.46 0.79 0.39 0.34 0.23 0.28 0.25 0.05 0.00 0.00 0.01 0.00 0.00 0.00 0.00 0.00 0.00 0.00 0.02 0.11 0.04 0.01 0.01 0.01 0.01 0.02 0.02 0.00 0.02 0.07 0.01 0.00 0.00 0.00 0.00
0.16 0.21 0.27 0.38 0.43 0.48 0.69 0.79 0.94 1.36 2.03 1.84 1.14 0.68 0.52 0.43 0.29 0.21 0.07 0.02 0.00 0.00 0.00 0.00 0.00 0.00 0.00 0.00 0.01 0.07 0.11 0.09 0.03 0.00 0.00 0.01 0.02 0.07 0.14 0.12 0.31 0.07 0.00 0.00 0.00 0.00 0.00
0.12 0.15 0.16 0.33 0.41 0.43 0.58 0.69 0.90 1.16 1.69 1.61 1.06 0.73 0.64 0.43 0.21 0.13 0.07 0.04 0.03 0.04 0.03 0.02 0.01 0.00 0.00 0.02 0.31 0.57 0.36 0.19 0.07 0.00 0.00 0.01 0.04 0.29 0.40 0.31 0.18 0.01 0.00 0.00 0.00 0.00 0.00
0.07 0.16 0.11 0.21 0.35 0.32 0.43 0.53 0.63 0.91 1.25 1.20 1.02 0.72 0.71 0.50 0.26 0.10 0.09 0.10 0.13 0.14 0.14 0.08 0.05 0.03 0.09 0.31 0.85 1.01 0.54 0.19 0.04 0.01 0.00 0.00 0.03 0.26 0.81 0.55 0.21 0.02 0.00 0.00 0.00 0.00 0.00
0.04 0.12 0.13 0.12 0.24 0.27 0.29 0.38 0.43 0.56 0.66 0.56 0.67 0.45 0.51 0.52 0.29 0.12 0.14 0.12 0.15 0.20 0.21 0.13 0.09 0.17 0.37 0.80 1.13 0.90 0.45 0.13 0.03 0.00 0.00 0.01 0.04 0.22 0.47 0.48 0.23 0.01 0.00 0.00 0.00 0.00 0.00
0.01 0.05 0.09 0.09 0.17 0.25 0.26 0.22 0.26 0.32 0.40 0.39 0.36 0.29 0.38 0.54 0.38 0.23 0.24 0.23 0.18 0.19 0.32 0.34 0.29 0.45 0.53 0.91 1.25 1.15 0.63 0.27 0.06 0.00 0.01 0.03 0.05 0.08 0.10 0.20 0.28 0.02 0.00 0.00 0.00 0.00 0.00
0.00 0.01 0.04 0.06 0.10 0.16 0.21 0.18 0.16 0.20 0.28 0.34 0.29 0.22 0.25 0.48 0.50 0.22 0.23 0.28 0.31 0.38 0.39 0.53 0.60 0.54 0.53 0.62 0.80 0.64 0.48 0.25 0.09 0.03 0.01 0.08 0.09 0.03 0.03 0.07 0.02 0.00 0.00 0.00 0.00 0.00 0.00

GFSGBSN_prec_precacc12_237.txt.gz
Total_Precipitation_Accumulation
0.04 0.02 0.01 0.01 0.01 0.00 0.00 0.00 0.00 0.00 0.00 0.00 0.00 0.00 0.00 0.00 0.00 0.00 0.00 0.00 0.00 0.00 0.00 0.00 0.00 0.00 0.00 0.00 0.00 0.00 0.00 0.00 0.00 0.00 0.00 0.00 0.00 0.00 0.00 0.00 0.00 0.00 0.00 0.00 0.00 0.00 0.00
0.03 0.03 0.02 0.01 0.01 0.01 0.00 0.00 0.00 0.00 0.00 0.00 0.00 0.00 0.00 0.00 0.00 0.00 0.00 0.00 0.00 0.00 0.00 0.00 0.00 0.00 0.00 0.00 0.00 0.00 0.00 0.00 0.00 0.00 0.00 0.00 0.00 0.00 0.00 0.00 0.00 0.00 0.00 0.00 0.00 0.00 0.00
0.02 0.01 0.01 0.01 0.01 0.00 0.00 0.00 0.00 0.00 0.00 0.00 0.00 0.00 0.00 0.00 0.00 0.00 0.00 0.00 0.00 0.00 0.00 0.00 0.00 0.00 0.00 0.00 0.00 0.00 0.00 0.00 0.00 0.00 0.00 0.00 0.00 0.00 0.00 0.00 0.00 0.00 0.00 0.00 0.00 0.00 0.00
0.05 0.03 0.01 0.01 0.00 0.00 0.00 0.00 0.00 0.00 0.00 0.00 0.00 0.00 0.00 0.00 0.00 0.00 0.00 0.00 0.00 0.00 0.00 0.00 0.00 0.00 0.00 0.00 0.00 0.00 0.00 0.00 0.00 0.00 0.00 0.00 0.00 0.00 0.00 0.00 0.00 0.00 0.00 0.00 0.00 0.00 0.00
0.07 0.08 0.05 0.03 0.02 0.01 0.00 0.00 0.00 0.00 0.00 0.00 0.00 0.00 0.00 0.00 0.00 0.00 0.00 0.00 0.00 0.00 0.00 0.00 0.00 0.00 0.00 0.00 0.00 0.00 0.00 0.00 0.00 0.00 0.00 0.00 0.00 0.00 0.00 0.00 0.00 0.00 0.00 0.00 0.00 0.00 0.00
0.08 0.07 0.07 0.06 0.03 0.02 0.01 0.01 0.00 0.00 0.00 0.00 0.00 0.00 0.00 0.00 0.00 0.00 0.00 0.00 0.00 0.00 0.00 0.00 0.00 0.00 0.00 0.00 0.00 0.00 0.00 0.00 0.00 0.00 0.00 0.00 0.00 0.00 0.00 0.00 0.00 0.00 0.00 0.00 0.00 0.00 0.00
0.09 0.09 0.08 0.07 0.08 0.05 0.02 0.01 0.01 0.00 0.00 0.00 0.00 0.00 0.00 0.00 0.00 0.00 0.00 0.00 0.00 0.00 0.00 0.00 0.00 0.00 0.00 0.00 0.00 0.00 0.00 0.00 0.00 0.00 0.00 0.00 0.00 0.00 0.00 0.00 0.00 0.00 0.00 0.00 0.00 0.00 0.00
0.07 0.09 0.09 0.08 0.07 0.09 0.07 0.04 0.02 0.01 0.00 0.00 0.00 0.00 0.00 0.00 0.00 0.00 0.00 0.00 0.00 0.00 0.00 0.00 0.00 0.00 0.00 0.00 0.00 0.00 0.00 0.00 0.00 0.00 0.00 0.00 0.00 0.00 0.00 0.00 0.00 0.00 0.00 0.00 0.00 0.00 0.00
0.14 0.06 0.07 0.09 0.09 0.08 0.08 0.09 0.06 0.03 0.01 0.01 0.01 0.00 0.00 0.00 0.00 0.00 0.00 0.00 0.00 0.00 0.00 0.00 0.00 0.00 0.00 0.00 0.00 0.00 0.00 0.00 0.00 0.00 0.00 0.00 0.00 0.00 0.00 0.00 0.00 0.00 0.00 0.00 0.00 0.00 0.00
0.17 0.16 0.08 0.06 0.09 0.10 0.08 0.07 0.09 0.09 0.05 0.03 0.01 0.01 0.00 0.00 0.00 0.00 0.00 0.00 0.00 0.00 0.00 0.00 0.00 0.00 0.00 0.00 0.00 0.00 0.00 0.00 0.00 0.00 0.00 0.00 0.00 0.00 0.00 0.00 0.00 0.00 0.00 0.00 0.00 0.00 0.00
0.11 0.12 0.13 0.08 0.06 0.10 0.10 0.09 0.07 0.09 0.11 0.06 0.03 0.01 0.00 0.00 0.00 0.00 0.00 0.00 0.00 0.00 0.00 0.00 0.00 0.00 0.00 0.00 0.00 0.00 0.00 0.00 0.00 0.00 0.00 0.00 0.00 0.00 0.00 0.00 0.00 0.00 0.00 0.00 0.00 0.00 0.00
0.17 0.10 0.09 0.09 0.08 0.05 0.10 0.11 0.11 0.08 0.08 0.12 0.09 0.03 0.00 0.00 0.00 0.00 0.00 0.00 0.00 0.00 0.00 0.00 0.00 0.00 0.00 0.00 0.00 0.00 0.00 0.00 0.00 0.00 0.00 0.00 0.00 0.00 0.00 0.00 0.00 0.00 0.00 0.00 0.00 0.00 0.00
0.39 0.14 0.07 0.06 0.07 0.08 0.05 0.09 0.13 0.12 0.09 0.11 0.16 0.08 0.03 0.00 0.00 0.00 0.00 0.00 0.00 0.00 0.00 0.00 0.00 0.00 0.00 0.00 0.00 0.00 0.00 0.00 0.00 0.00 0.00 0.00 0.00 0.00 0.00 0.00 0.00 0.00 0.00 0.00 0.00 0.00 0.00
0.50 0.51 0.14 0.07 0.05 0.09 0.10 0.06 0.09 0.16 0.15 0.14 0.19 0.16 0.04 0.00 0.00 0.00 0.02 0.00 0.00 0.00 0.00 0.00 0.00 0.00 0.00 0.00 0.00 0.00 0.00 0.00 0.00 0.00 0.00 0.00 0.00 0.00 0.00 0.00 0.00 0.00 0.00 0.00 0.00 0.00 0.00
0.35 0.64 0.47 0.18 0.09 0.06 0.10 0.11 0.10 0.14 0.23 0.22 0.30 0.27 0.09 0.00 0.00 0.04 0.06 0.00 0.00 0.00 0.00 0.00 0.00 0.00 0.00 0.00 0.00 0.00 0.00 0.00 0.00 0.00 0.00 0.00 0.00 0.00 0.00 0.00 0.00 0.00 0.00 0.00 0.00 0.00 0.00
0.52 0.44 0.77 0.43 0.23 0.11 0.08 0.11 0.15 0.17 0.25 0.42 0.53 0.57 0.21 0.01 0.04 0.14 0.17 0.00 0.00 0.00 0.00 0.00 0.00 0.00 0.00 0.00 0.00 0.00 0.00 0.00 0.00 0.00 0.00 0.00 0.00 0.00 0.00 0.00 0.00 0.00 0.00 0.00 0.00 0.00 0.00
0.58 0.68 0.64 0.84 0.51 0.30 0.15 0.12 0.18 0.33 0.34 0.38 0.78 0.73 0.29 0.06 0.18 0.26 0.09 0.00 0.00 0.00 0.00 0.00 0.00 0.00 0.00 0.00 0.00 0.00 0.00 0.00 0.00 0.00 0.00 0.00 0.00 0.00 0.00 0.00 0.00 0.00 0.00 0.00 0.00 0.00 0.00
0.49 0.64 0.74 0.80 0.91 0.60 0.42 0.23 0.24 0.41 0.63 0.62 0.85 0.82 0.28 0.15 0.22 0.08 0.01 0.00 0.00 0.00 0.00 0.00 0.00 0.00 0.00 0.00 0.00 0.00 0.00 0.00 0.00 0.00 0.00 0.00 0.00 0.00 0.00 0.00 0.00 0.00 0.00 0.00 0.00 0.00 0.00
0.40 0.57 0.63 0.66 0.93 1.05 0.62 0.51 0.38 0.51 0.81 1.02 0.91 0.74 0.50 0.14 0.05 0.02 0.00 0.00 0.00 0.00 0.00 0.00 0.00 0.00 0.00 0.00 0.00 0.00 0.00 0.00 0.00 0.00 0.00 0.00 0.00 0.00 0.00 0.00 0.00 0.00 0.00 0.00 0.00 0.00 0.00
0.44 0.47 0.54 0.62 0.71 1.07 1.07 0.87 0.62 0.55 0.80 1.29 1.09 0.89 1.02 0.58 0.04 0.00 0.00 0.00 0.00 0.00 0.00 0.00 0.00 0.00 0.00 0.00 0.00 0.00 0.00 0.00 0.00 0.00 0.00 0.00 0.00 0.00 0.00 0.00 0.00 0.00 0.00 0.00 0.00 0.00 0.00
0.38 0.44 0.50 0.56 0.67 0.74 1.14 1.14 1.00 0.78 0.84 1.65 1.67 1.02 0.67 0.44 0.11 0.01 0.00 0.00 0.00 0.00 0.00 0.00 0.00 0.00 0.00 0.00 0.00 0.00 0.00 0.00 0.00 0.00 0.00 0.00 0.00 0.00 0.00 0.00 0.00 0.00 0.00 0.00 0.00 0.00 0.00
0.28 0.35 0.48 0.55 0.58 0.75 0.92 1.15 1.18 1.08 1.29 2.15 1.88 1.09 0.60 0.25 0.10 0.04 0.02 0.01 0.00 0.00 0.00 0.00 0.00 0.00 0.00 0.00 0.00 0.00 0.00 0.00 0.00 0.00 0.00 0.00 0.00 0.00 0.00 0.00 0.00 0.00 0.00 0.00 0.00 0.00 0.00
0.32 0.34 0.43 0.51 0.55 0.69 0.78 0.95 1.06 1.28 1.88 2.63 1.76 0.75 0.43 0.28 0.18 0.20 0.10 0.01 0.00 0.00 0.01 0.00 0.00 0.00 0.00 0.00 0.00 0.00 0.01 0.09 0.02 0.00 0.00 0.00 0.00 0.01 0.00 0.00 0.01 0.01 0.00 0.00 0.00 0.00 0.00
0.21 0.33 0.44 0.54 0.59 0.65 0.79 0.83 0.95 1.37 2.02 2.23 1.39 0.64 0.47 0.38 0.23 0.17 0.06 0.01 0.00 0.00 0.00 0.00 0.00 0.00 0.00 0.00 0.01 0.05 0.10 0.08 0.03 0.00 0.00 0.01 0.01 0.03 0.06 0.07 0.18 0.02 0.00 0.00 0.00 0.00 0.00
0.15 0.22 0.29 0.51 0.61 0.65 0.74 0.80 0.91 1.17 1.66 1.71 1.03 0.62 0.49 0.33 0.16 0.11 0.07 0.04 0.03 0.04 0.02 0.02 0.01 0.00 0.00 0.01 0.24 0.39 0.23 0.14 0.05 0.00 0.00 0.00 0.01 0.16 0.18 0.14 0.07 0.00 0.00 0.00 0.00 0.00 0.00
0.08 0.19 0.26 0.42 0.59 0.58 0.72 0.83 0.79 0.95 1.34 1.38 0.92 0.62 0.56 0.36 0.19 0.07 0.08 0.09 0.13 0.13 0.10 0.04 0.03 0.03 0.07 0.21 0.63 0.74 0.37 0.13 0.03 0.00 0.00 0.00 0.01 0.19 0.59 0.33 0.09 0.00 0.00 0.00 0.00 0.00 0.00
0.04 0.14 0.26 0.35 0.46 0.57 0.66 0.79 0.77 0.77 0.87 0.85 0.71 0.43 0.46 0.42 0.24 0.11 0.13 0.10 0.12 0.15 0.15 0.09 0.06 0.15 0.33 0.60 0.87 0.69 0.31 0.07 0.02 0.00 0.00 0.00 0.02 0.16 0.38 0.33 0.09 0.00 0.00 0.00 0.00 0.00 0.00
0.01 0.04 0.14 0.30 0.36 0.53 0.58 0.59 0.73 0.70 0.68 0.62 0.57 0.34 0.36 0.44 0.33 0.19 0.19 0.18 0.16 0.15 0.17 0.16 0.22 0.39 0.46 0.74 0.99 0.91 0.48 0.17 0.03 0.00 0.01 0.04 0.04 0.06 0.08 0.19 0.18 0.01 0.00 0.00 0.00 0.00 0.00
0.01 0.01 0.05 0.19 0.24 0.34 0.47 0.40 0.57 0.65 0.66 0.54 0.43 0.34 0.29 0.40 0.45 0.24 0.23 0.25 0.25 0.31 0.33 0.38 0.37 0.36 0.45 0.55 0.66 0.52 0.41 0.20 0.07 0.02 0.02 0.15 0.16 0.05 0.03 0.07 0.02 0.00 0.01 0.01 0.00 0.00 0.00

GFSGBSN_prec_precacc12_240.txt.gz
Total_Precipitation_Accumulation
0.04 0.02 0.01 0.01 0.01 0.00 0.00 0.00 0.00 0.00 0.00 0.00 0.00 0.00 0.00 0.00 0.00 0.00 0.00 0.00 0.00 0.00 0.00 0.00 0.00 0.00 0.00 0.00 0.00 0.00 0.00 0.00 0.00 0.00 0.00 0.00 0.00 0.00 0.00 0.00 0.00 0.00 0.00 0.00 0.00 0.00 0.00
0.03 0.03 0.02 0.01 0.01 0.01 0.00 0.00 0.00 0.00 0.00 0.00 0.00 0.00 0.00 0.00 0.00 0.00 0.00 0.00 0.00 0.00 0.00 0.00 0.00 0.00 0.00 0.00 0.00 0.00 0.00 0.00 0.00 0.00 0.00 0.00 0.00 0.00 0.00 0.00 0.00 0.00 0.00 0.00 0.00 0.00 0.00
0.02 0.01 0.01 0.01 0.01 0.00 0.00 0.00 0.00 0.00 0.00 0.00 0.00 0.00 0.00 0.00 0.00 0.00 0.00 0.00 0.00 0.00 0.00 0.00 0.00 0.00 0.00 0.00 0.00 0.00 0.00 0.00 0.00 0.00 0.00 0.00 0.00 0.00 0.00 0.00 0.00 0.00 0.00 0.00 0.00 0.00 0.00
0.05 0.03 0.02 0.01 0.00 0.00 0.00 0.00 0.00 0.00 0.00 0.00 0.00 0.00 0.00 0.00 0.00 0.00 0.00 0.00 0.00 0.00 0.00 0.00 0.00 0.00 0.00 0.00 0.00 0.00 0.00 0.00 0.00 0.00 0.00 0.00 0.00 0.00 0.00 0.00 0.00 0.00 0.00 0.00 0.00 0.00 0.00
0.07 0.08 0.05 0.03 0.02 0.01 0.00 0.00 0.00 0.00 0.00 0.00 0.00 0.00 0.00 0.00 0.00 0.00 0.00 0.00 0.00 0.00 0.00 0.00 0.00 0.00 0.00 0.00 0.00 0.00 0.00 0.00 0.00 0.00 0.00 0.00 0.00 0.00 0.00 0.00 0.00 0.00 0.00 0.00 0.00 0.00 0.00
0.07 0.07 0.08 0.06 0.04 0.02 0.01 0.01 0.00 0.00 0.00 0.00 0.00 0.00 0.00 0.00 0.00 0.00 0.00 0.00 0.00 0.00 0.00 0.00 0.00 0.00 0.00 0.00 0.00 0.00 0.00 0.00 0.00 0.00 0.00 0.00 0.00 0.00 0.00 0.00 0.00 0.00 0.00 0.00 0.00 0.00 0.00
0.06 0.08 0.08 0.07 0.08 0.05 0.02 0.01 0.01 0.00 0.00 0.00 0.00 0.00 0.00 0.00 0.00 0.00 0.00 0.00 0.00 0.00 0.00 0.00 0.00 0.00 0.00 0.00 0.00 0.00 0.00 0.00 0.00 0.00 0.00 0.00 0.00 0.00 0.00 0.00 0.00 0.00 0.00 0.00 0.00 0.00 0.00
0.04 0.07 0.09 0.08 0.07 0.09 0.07 0.04 0.02 0.01 0.01 0.01 0.01 0.00 0.00 0.00 0.00 0.00 0.00 0.00 0.00 0.00 0.00 0.00 0.00 0.00 0.00 0.00 0.00 0.00 0.00 0.00 0.00 0.00 0.00 0.00 0.00 0.00 0.00 0.00 0.00 0.00 0.00 0.00 0.00 0.00 0.00
0.06 0.04 0.06 0.09 0.09 0.07 0.08 0.09 0.06 0.03 0.02 0.02 0.02 0.01 0.01 0.00 0.00 0.00 0.00 0.00 0.00 0.00 0.00 0.00 0.00 0.00 0.00 0.00 0.00 0.00 0.00 0.00 0.00 0.00 0.00 0.00 0.00 0.00 0.00 0.00 0.00 0.00 0.00 0.00 0.00 0.00 0.00
0.04 0.06 0.06 0.06 0.09 0.10 0.08 0.07 0.09 0.09 0.06 0.05 0.05 0.04 0.03 0.03 0.00 0.00 0.00 0.00 0.00 0.00 0.00 0.00 0.00 0.00 0.00 0.00 0.00 0.00 0.00 0.00 0.00 0.00 0.00 0.00 0.00 0.00 0.00 0.00 0.00 0.00 0.00 0.00 0.00 0.00 0.00
0.03 0.05 0.08 0.07 0.06 0.10 0.10 0.09 0.07 0.09 0.12 0.10 0.09 0.12 0.12 0.07 0.00 0.00 0.00 0.00 0.00 0.00 0.00 0.00 0.00 0.00 0.00 0.00 0.00 0.00 0.00 0.00 0.00 0.00 0.00 0.00 0.00 0.00 0.00 0.00 0.00 0.00 0.00 0.00 0.00 0.00 0.00
0.05 0.05 0.07 0.08 0.07 0.05 0.10 0.11 0.11 0.08 0.09 0.17 0.18 0.18 0.23 0.16 0.03 0.00 0.00 0.00 0.00 0.00 0.00 0.00 0.00 0.00 0.00 0.00 0.00 0.00 0.00 0.00 0.00 0.00 0.00 0.00 0.00 0.00 0.00 0.00 0.00 0.00 0.00 0.00 0.00 0.00 0.00
0.10 0.04 0.05 0.05 0.07 0.08 0.05 0.09 0.13 0.12 0.10 0.12 0.26 0.32 0.36 0.19 0.04 0.00 0.00 0.00 0.02 0.00 0.00 0.00 0.00 0.00 0.00 0.00 0.00 0.00 0.00 0.00 0.00 0.00 0.00 0.00 0.00 0.00 0.00 0.00 0.00 0.00 0.00 0.00 0.00 0.00 0.00
0.09 0.12 0.05 0.06 0.05 0.08 0.10 0.06 0.09 0.16 0.15 0.14 0.23 0.39 0.51 0.25 0.03 0.00 0.07 0.06 0.03 0.00 0.00 0.00 0.00 0.00 0.00 0.00 0.00 0.00 0.00 0.00 0.00 0.00 0.00 0.00 0.00 0.00 0.00 0.00 0.00 0.00 0.00 0.00 0.00 0.00 0.00
0.10 0.07 0.11 0.05 0.06 0.06 0.10 0.11 0.10 0.14 0.24 0.23 0.31 0.44 0.57 0.40 0.09 0.08 0.18 0.16 0.05 0.00 0.00 0.00 0.00 0.00 0.00 0.00 0.00 0.00 0.00 0.00 0.00 0.00 0.00 0.00 0.00 0.00 0.00 0.00 0.00 0.00 0.00 0.00 0.00 0.00 0.00
0.22 0.12 0.07 0.11 0.09 0.08 0.07 0.11 0.15 0.17 0.25 0.43 0.54 0.68 0.53 0.25 0.17 0.35 0.33 0.19 0.04 0.00 0.00 0.00 0.00 0.00 0.00 0.00 0.00 0.00 0.00 0.00 0.00 0.00 0.00 0.00 0.00 0.00 0.00 0.00 0.00 0.00 0.00 0.00 0.00 0.00 0.00
0.32 0.25 0.15 0.15 0.19 0.22 0.11 0.10 0.17 0.33 0.35 0.39 0.81 0.85 0.51 0.21 0.46 0.73 0.35 0.14 0.02 0.00 0.00 0.00 0.00 0.00 0.00 0.00 0.00 0.00 0.00 0.00 0.00 0.00 0.00 0.00 0.00 0.00 0.00 0.00 0.00 0.00 0.00 0.00 0.00 0.00 0.00
0.30 0.36 0.26 0.18 0.36 0.38 0.33 0.17 0.20 0.38 0.62 0.62 0.87 0.93 0.44 0.29 0.89 0.71 0.28 0.03 0.00 0.00 0.00 0.00 0.00 0.00 0.00 0.00 0.00 0.00 0.00 0.00 0.00 0.00 0.00 0.00 0.00 0.00 0.00 0.00 0.00 0.00 0.00 0.00 0.00 0.00 0.00
0.28 0.38 0.36 0.29 0.42 0.62 0.45 0.41 0.29 0.36 0.75 1.00 0.90 0.79 0.60 0.38 0.75 0.68 0.23 0.00 0.00 0.00 0.00 0.00 0.00 0.00 0.00 0.00 0.00 0.00 0.00 0.00 0.00 0.00 0.00 0.00 0.00 0.00 0.00 0.00 0.00 0.00 0.00 0.00 0.00 0.00 0.00
0.31 0.36 0.38 0.42 0.41 0.62 0.73 0.65 0.52 0.39 0.52 1.09 1.02 0.92 1.05 0.83 0.52 0.35 0.10 0.00 0.00 0.00 0.00 0.00 0.00 0.00 0.00 0.00 0.00 0.00 0.00 0.00 0.00 0.00 0.00 0.00 0.00 0.00 0.00 0.00 0.00 0.00 0.00 0.00 0.00 0.00 0.00
0.31 0.34 0.42 0.46 0.54 0.52 0.88 0.84 0.78 0.58 0.50 1.10 1.31 1.00 0.75 0.79 0.59 0.31 0.03 0.00 0.00 0.00 0.00 0.00 0.00 0.00 0.00 0.00 0.00 0.00 0.00 0.00 0.00 0.00 0.00 0.00 0.00 0.00 0.00 0.00 0.00 0.00 0.00 0.00 0.00 0.00 0.00
0.27 0.32 0.44 0.54 0.55 0.67 0.78 0.96 1.04 0.88 0.87 1.44 1.33 0.89 0.62 0.34 0.32 0.10 0.03 0.00 0.00 0.00 0.00 0.00 0.00 0.00 0.00 0.00 0.00 0.00 0.00 0.00 0.00 0.00 0.00 0.00 0.00 0.00 0.00 0.00 0.00 0.00 0.00 0.00 0.00 0.00 0.00
0.32 0.35 0.44 0.51 0.56 0.69 0.74 0.84 0.91 1.07 1.57 2.22 1.42 0.55 0.52 0.29 0.13 0.06 0.01 0.00 0.00 0.00 0.00 0.00 0.00 0.00 0.00 0.00 0.00 0.00 0.00 0.02 0.00 0.00 0.00 0.00 0.00 0.01 0.00 0.00 0.00 0.00 0.00 0.00 0.00 0.00 0.00
0.22 0.33 0.44 0.58 0.67 0.74 0.83 0.78 0.85 1.23 1.82 2.11 1.34 0.63 0.56 0.47 0.12 0.03 0.00 0.00 0.00 0.00 0.00 0.00 0.00 0.00 0.00 0.00 0.00 0.02 0.04 0.04 0.01 0.00 0.00 0.00 0.01 0.02 0.03 0.04 0.05 0.00 0.00 0.00 0.00 0.00 0.00
0.15 0.22 0.30 0.53 0.66 0.74 0.87 0.89 0.90 1.10 1.52 1.59 0.98 0.58 0.49 0.46 0.17 0.06 0.04 0.02 0.02 0.02 0.01 0.01 0.00 0.00 0.00 0.01 0.15 0.19 0.11 0.08 0.03 0.00 0.00 0.00 0.01 0.10 0.11 0.09 0.03 0.00 0.00 0.00 0.00 0.00 0.00
0.07 0.19 0.27 0.46 0.66 0.67 0.82 0.93 0.87 0.94 1.22 1.34 0.90 0.50 0.46 0.41 0.21 0.05 0.07 0.08 0.11 0.11 0.09 0.03 0.01 0.02 0.06 0.15 0.40 0.45 0.20 0.07 0.02 0.00 0.00 0.00 0.01 0.15 0.41 0.21 0.04 0.00 0.00 0.00 0.00 0.00 0.00
0.04 0.13 0.27 0.43 0.60 0.74 0.82 0.95 0.89 0.81 0.83 0.96 0.86 0.42 0.40 0.45 0.21 0.07 0.10 0.08 0.12 0.15 0.14 0.08 0.06 0.14 0.30 0.42 0.52 0.45 0.19 0.05 0.01 0.00 0.00 0.00 0.01 0.12 0.30 0.22 0.05 0.00 0.00 0.00 0.00 0.00 0.00
0.03 0.05 0.15 0.39 0.55 0.76 0.82 0.87 0.93 0.75 0.66 0.71 0.84 0.46 0.45 0.51 0.34 0.16 0.16 0.15 0.13 0.12 0.14 0.10 0.19 0.38 0.44 0.65 0.77 0.63 0.30 0.10 0.02 0.00 0.01 0.04 0.02 0.03 0.05 0.15 0.13 0.00 0.00 0.00 0.00 0.00 0.00
0.02 0.02 0.06 0.31 0.47 0.60 0.83 0.80 0.86 0.75 0.70 0.58 0.72 0.56 0.48 0.50 0.44 0.27 0.23 0.23 0.19 0.21 0.23 0.26 0.25 0.30 0.39 0.48 0.57 0.39 0.29 0.14 0.05 0.02 0.02 0.15 0.16 0.04 0.01 0.04 0.01 0.00 0.01 0.02 0.00 0.00 0.00

GFSGBSN_prec_precacc12_246.txt.gz
Total_Precipitation_Accumulation
0.01 0.00 0.00 0.00 0.01 0.00 0.00 0.00 0.00 0.00 0.00 0.00 0.00 0.00 0.00 0.00 0.00 0.00 0.00 0.00 0.00 0.00 0.00 0.00 0.00 0.00 0.00 0.00 0.00 0.00 0.00 0.00 0.00 0.00 0.00 0.00 0.00 0.00 0.00 0.00 0.00 0.00 0.00 0.00 0.00 0.00 0.00
0.00 0.00 0.00 0.00 0.00 0.01 0.00 0.00 0.00 0.00 0.00 0.00 0.00 0.00 0.00 0.00 0.00 0.00 0.00 0.00 0.00 0.00 0.00 0.00 0.00 0.00 0.00 0.00 0.00 0.00 0.00 0.00 0.00 0.00 0.00 0.00 0.00 0.00 0.00 0.00 0.00 0.00 0.00 0.00 0.00 0.00 0.00
0.00 0.00 0.00 0.00 0.00 0.00 0.00 0.00 0.00 0.00 0.00 0.00 0.00 0.00 0.00 0.00 0.00 0.00 0.00 0.00 0.00 0.00 0.00 0.00 0.00 0.00 0.00 0.00 0.00 0.00 0.00 0.00 0.00 0.00 0.00 0.00 0.00 0.00 0.00 0.00 0.00 0.00 0.00 0.00 0.00 0.00 0.00
0.00 0.00 0.00 0.00 0.00 0.00 0.00 0.00 0.00 0.00 0.00 0.00 0.00 0.00 0.00 0.00 0.00 0.00 0.00 0.00 0.00 0.00 0.00 0.00 0.00 0.00 0.00 0.00 0.00 0.00 0.00 0.00 0.00 0.00 0.00 0.00 0.00 0.00 0.00 0.00 0.00 0.00 0.00 0.00 0.00 0.00 0.00
0.00 0.00 0.00 0.00 0.00 0.00 0.00 0.00 0.00 0.00 0.00 0.00 0.00 0.00 0.00 0.00 0.00 0.00 0.00 0.00 0.00 0.00 0.00 0.00 0.00 0.00 0.00 0.00 0.00 0.00 0.00 0.00 0.00 0.00 0.00 0.00 0.00 0.00 0.00 0.00 0.00 0.00 0.00 0.00 0.00 0.00 0.00
0.00 0.00 0.00 0.01 0.01 0.01 0.00 0.01 0.00 0.00 0.00 0.00 0.00 0.00 0.00 0.00 0.00 0.00 0.00 0.00 0.00 0.00 0.00 0.00 0.00 0.00 0.00 0.00 0.00 0.00 0.00 0.00 0.00 0.00 0.00 0.00 0.00 0.00 0.00 0.00 0.00 0.00 0.00 0.00 0.00 0.00 0.00
0.00 0.00 0.00 0.00 0.02 0.02 0.01 0.01 0.01 0.00 0.00 0.00 0.00 0.00 0.00 0.00 0.00 0.01 0.00 0.00 0.00 0.00 0.00 0.00 0.00 0.00 0.00 0.00 0.00 0.00 0.00 0.00 0.00 0.00 0.00 0.00 0.00 0.00 0.00 0.00 0.00 0.00 0.00 0.00 0.00 0.00 0.00
0.00 0.00 0.00 0.00 0.00 0.02 0.04 0.02 0.02 0.01 0.01 0.01 0.01 0.00 0.00 0.00 0.01 0.02 0.01 0.00 0.00 0.00 0.00 0.00 0.00 0.00 0.00 0.00 0.00 0.00 0.00 0.00 0.00 0.00 0.00 0.00 0.00 0.00 0.00 0.00 0.00 0.00 0.00 0.00 0.00 0.00 0.00
0.00 0.00 0.00 0.00 0.00 0.00 0.02 0.06 0.05 0.03 0.02 0.02 0.02 0.01 0.01 0.02 0.06 0.04 0.00 0.00 0.00 0.00 0.00 0.00 0.00 0.00 0.00 0.00 0.00 0.00 0.00 0.00 0.00 0.00 0.00 0.00 0.00 0.00 0.00 0.00 0.00 0.00 0.00 0.00 0.00 0.00 0.00
0.00 0.00 0.00 0.00 0.00 0.00 0.00 0.03 0.07 0.08 0.06 0.05 0.05 0.05 0.06 0.16 0.23 0.05 0.01 0.00 0.00 0.00 0.00 0.00 0.00 0.00 0.00 0.00 0.00 0.00 0.00 0.00 0.00 0.00 0.00 0.00 0.00 0.00 0.00 0.00 0.00 0.00 0.00 0.00 0.00 0.00 0.00
0.01 0.01 0.01 0.00 0.00 0.00 0.00 0.01 0.03 0.08 0.12 0.10 0.09 0.12 0.22 0.37 0.28 0.15 0.01 0.00 0.00 0.01 0.01 0.00 0.00 0.00 0.00 0.00 0.00 0.00 0.00 0.00 0.00 0.00 0.00 0.00 0.00 0.00 0.00 0.00 0.00 0.00 0.00 0.00 0.00 0.00 0.00
0.01 0.01 0.01 0.01 0.00 0.00 0.00 0.01 0.03 0.05 0.09 0.17 0.18 0.18 0.28 0.43 0.31 0.07 0.02 0.04 0.14 0.18 0.08 0.00 0.00 0.00 0.00 0.00 0.00 0.00 0.00 0.00 0.00 0.00 0.00 0.00 0.00 0.00 0.00 0.00 0.00 0.00 0.00 0.00 0.00 0.00 0.00
0.00 0.00 0.00 0.01 0.01 0.00 0.00 0.00 0.02 0.07 0.10 0.12 0.26 0.33 0.39 0.34 0.28 0.08 0.18 0.27 0.46 0.50 0.09 0.00 0.00 0.00 0.00 0.00 0.00 0.00 0.00 0.00 0.00 0.00 0.00 0.00 0.00 0.00 0.00 0.00 0.00 0.00 0.00 0.00 0.00 0.00 0.00
0.01 0.00 0.00 0.00 0.01 0.00 0.00 0.00 0.01 0.06 0.13 0.14 0.23 0.39 0.52 0.36 0.14 0.14 0.62 0.84 0.68 0.35 0.07 0.00 0.00 0.00 0.00 0.00 0.00 0.00 0.00 0.00 0.00 0.00 0.00 0.00 0.00 0.00 0.00 0.00 0.00 0.00 0.00 0.00 0.00 0.00 0.00
0.02 0.01 0.01 0.01 0.01 0.01 0.01 0.01 0.01 0.05 0.20 0.22 0.32 0.42 0.56 0.44 0.15 0.38 0.88 1.31 0.84 0.21 0.01 0.00 0.00 0.00 0.00 0.00 0.00 0.00 0.00 0.00 0.00 0.00 0.00 0.00 0.00 0.00 0.00 0.00 0.00 0.00 0.00 0.00 0.00 0.00 0.00
0.02 0.02 0.01 0.01 0.01 0.01 0.01 0.01 0.01 0.03 0.19 0.42 0.54 0.63 0.49 0.24 0.20 0.72 1.09 1.12 0.46 0.03 0.00 0.00 0.00 0.00 0.00 0.00 0.00 0.00 0.00 0.00 0.00 0.00 0.00 0.00 0.00 0.00 0.00 0.00 0.00 0.00 0.00 0.00 0.00 0.00 0.00
0.02 0.03 0.02 0.02 0.01 0.01 0.01 0.01 0.01 0.04 0.16 0.40 0.78 0.80 0.49 0.16 0.45 1.13 1.35 0.69 0.24 0.01 0.00 0.00 0.00 0.00 0.00 0.00 0.00 0.00 0.00 0.00 0.00 0.00 0.00 0.00 0.00 0.00 0.00 0.00 0.00 0.00 0.00 0.00 0.00 0.00 0.00
0.02 0.02 0.02 0.02 0.01 0.02 0.01 0.02 0.03 0.07 0.27 0.52 0.83 0.91 0.40 0.22 0.86 1.06 1.00 0.40 0.05 0.00 0.00 0.00 0.00 0.00 0.00 0.00 0.00 0.00 0.00 0.00 0.00 0.00 0.00 0.00 0.00 0.00 0.00 0.00 0.00 0.00 0.00 0.00 0.00 0.00 0.00
0.05 0.05 0.04 0.04 0.04 0.04 0.03 0.03 0.06 0.10 0.31 0.69 0.89 0.70 0.41 0.43 0.87 0.87 0.61 0.19 0.02 0.00 0.00 0.00 0.00 0.00 0.00 0.00 0.00 0.00 0.00 0.00 0.00 0.00 0.00 0.00 0.00 0.00 0.00 0.00 0.00 0.00 0.00 0.00 0.00 0.00 0.00
0.05 0.06 0.06 0.06 0.07 0.08 0.08 0.11 0.13 0.15 0.19 0.77 0.97 0.82 0.76 0.65 0.62 0.60 0.33 0.18 0.04 0.00 0.00 0.00 0.00 0.00 0.00 0.00 0.00 0.00 0.00 0.00 0.00 0.00 0.00 0.00 0.00 0.00 0.00 0.00 0.00 0.00 0.00 0.00 0.00 0.00 0.00
0.08 0.07 0.06 0.05 0.05 0.05 0.07 0.10 0.19 0.26 0.26 0.86 1.27 1.03 0.72 0.77 0.60 0.49 0.23 0.09 0.04 0.02 0.01 0.01 0.01 0.00 0.00 0.00 0.00 0.00 0.00 0.00 0.00 0.00 0.00 0.00 0.00 0.00 0.00 0.00 0.00 0.00 0.00 0.00 0.00 0.00 0.00
0.08 0.09 0.10 0.11 0.11 0.11 0.12 0.13 0.20 0.24 0.44 1.12 1.29 0.92 0.62 0.34 0.34 0.18 0.14 0.07 0.04 0.02 0.02 0.04 0.02 0.00 0.00 0.00 0.00 0.00 0.00 0.00 0.00 0.00 0.00 0.00 0.00 0.00 0.00 0.00 0.00 0.00 0.00 0.00 0.00 0.00 0.00
0.12 0.13 0.13 0.13 0.15 0.17 0.15 0.15 0.18 0.26 0.58 1.46 1.14 0.44 0.52 0.30 0.13 0.17 0.09 0.05 0.01 0.01 0.02 0.02 0.03 0.01 0.00 0.00 0.00 0.00 0.00 0.00 0.00 0.00 0.00 0.00 0.00 0.00 0.00 0.00 0.00 0.00 0.00 0.00 0.00 0.00 0.00
0.07 0.13 0.19 0.22 0.29 0.31 0.22 0.15 0.15 0.26 0.47 1.03 0.80 0.31 0.38 0.42 0.12 0.17 0.06 0.01 0.00 0.00 0.00 0.01 0.01 0.01 0.00 0.00 0.00 0.00 0.00 0.00 0.00 0.00 0.00 0.00 0.00 0.00 0.00 0.00 0.00 0.00 0.00 0.00 0.00 0.00 0.00
0.04 0.09 0.17 0.22 0.27 0.32 0.32 0.32 0.20 0.20 0.36 0.82 0.49 0.25 0.24 0.31 0.11 0.05 0.04 0.01 0.01 0.00 0.00 0.00 0.00 0.01 0.00 0.01 0.02 0.03 0.03 0.03 0.01 0.00 0.00 0.00 0.01 0.02 0.01 0.00 0.00 0.00 0.00 0.00 0.00 0.00 0.00
0.05 0.09 0.22 0.32 0.38 0.42 0.46 0.46 0.41 0.31 0.33 0.83 0.68 0.25 0.20 0.29 0.16 0.02 0.01 0.00 0.01 0.03 0.03 0.01 0.00 0.00 0.01 0.04 0.08 0.13 0.07 0.03 0.00 0.00 0.00 0.00 0.00 0.02 0.01 0.01 0.00 0.00 0.00 0.00 0.00 0.00 0.00
0.07 0.09 0.23 0.41 0.47 0.58 0.63 0.65 0.53 0.41 0.47 0.88 0.92 0.35 0.22 0.33 0.18 0.03 0.02 0.04 0.02 0.05 0.12 0.07 0.02 0.06 0.12 0.17 0.21 0.13 0.02 0.00 0.00 0.00 0.00 0.00 0.00 0.00 0.00 0.01 0.00 0.00 0.00 0.00 0.00 0.00 0.00
0.06 0.05 0.13 0.39 0.48 0.63 0.71 0.78 0.77 0.53 0.42 0.68 1.10 0.57 0.29 0.30 0.25 0.09 0.02 0.03 0.04 0.08 0.16 0.12 0.10 0.15 0.25 0.32 0.32 0.18 0.06 0.01 0.00 0.00 0.00 0.01 0.01 0.01 0.01 0.05 0.04 0.00 0.00 0.00 0.00 0.00 0.00
0.05 0.04 0.11 0.35 0.48 0.58 0.78 0.78 0.86 0.68 0.56 0.49 0.72 0.73 0.54 0.30 0.34 0.25 0.10 0.07 0.07 0.06 0.09 0.12 0.23 0.10 0.19 0.26 0.18 0.09 0.06 0.02 0.00 0.00 0.01 0.07 0.07 0.02 0.01 0.02 0.00 0.00 0.01 0.02 0.00 0.00 0.00

GFSGBSN_prec_precacc12_249.txt.gz
Total_Precipitation_Accumulation
0.00 0.00 0.00 0.00 0.00 0.00 0.00 0.00 0.00 0.00 0.00 0.00 0.00 0.00 0.00 0.00 0.00 0.00 0.00 0.00 0.00 0.00 0.00 0.00 0.00 0.00 0.00 0.00 0.00 0.00 0.00 0.00 0.00 0.00 0.00 0.00 0.00 0.00 0.00 0.00 0.00 0.00 0.00 0.00 0.00 0.00 0.00
0.00 0.00 0.00 0.00 0.00 0.00 0.00 0.00 0.00 0.00 0.00 0.00 0.00 0.00 0.00 0.00 0.00 0.00 0.00 0.00 0.00 0.00 0.00 0.00 0.00 0.00 0.00 0.00 0.00 0.00 0.00 0.00 0.00 0.00 0.00 0.00 0.00 0.00 0.00 0.00 0.00 0.00 0.00 0.00 0.00 0.00 0.00
0.00 0.00 0.00 0.00 0.00 0.00 0.00 0.00 0.00 0.00 0.00 0.00 0.00 0.00 0.00 0.00 0.00 0.00 0.00 0.00 0.00 0.00 0.00 0.00 0.00 0.00 0.00 0.00 0.00 0.00 0.00 0.00 0.00 0.00 0.00 0.00 0.00 0.00 0.00 0.00 0.00 0.00 0.00 0.00 0.00 0.00 0.00
0.00 0.00 0.00 0.00 0.00 0.00 0.00 0.00 0.00 0.00 0.00 0.00 0.00 0.00 0.00 0.00 0.00 0.00 0.00 0.00 0.00 0.00 0.00 0.00 0.00 0.00 0.00 0.00 0.00 0.00 0.00 0.00 0.00 0.00 0.00 0.00 0.00 0.00 0.00 0.00 0.00 0.00 0.00 0.00 0.00 0.00 0.00
0.00 0.00 0.00 0.00 0.00 0.00 0.00 0.00 0.00 0.00 0.00 0.00 0.00 0.00 0.00 0.00 0.00 0.00 0.00 0.00 0.00 0.00 0.00 0.00 0.00 0.00 0.00 0.00 0.00 0.00 0.00 0.00 0.00 0.00 0.00 0.00 0.00 0.00 0.00 0.00 0.00 0.00 0.00 0.00 0.00 0.00 0.00
0.01 0.00 0.00 0.00 0.00 0.00 0.00 0.00 0.00 0.00 0.00 0.00 0.00 0.00 0.00 0.00 0.00 0.00 0.00 0.00 0.00 0.00 0.00 0.00 0.00 0.00 0.00 0.00 0.00 0.00 0.00 0.00 0.00 0.00 0.00 0.00 0.00 0.00 0.00 0.00 0.00 0.00 0.00 0.00 0.00 0.00 0.00
0.01 0.00 0.00 0.00 0.00 0.00 0.00 0.00 0.00 0.00 0.00 0.00 0.00 0.00 0.00 0.00 0.00 0.01 0.00 0.00 0.00 0.00 0.00 0.00 0.00 0.00 0.00 0.00 0.00 0.00 0.00 0.00 0.00 0.00 0.00 0.00 0.00 0.00 0.00 0.00 0.00 0.00 0.00 0.00 0.00 0.00 0.00
0.00 0.00 0.00 0.00 0.00 0.00 0.00 0.00 0.00 0.00 0.00 0.00 0.00 0.00 0.00 0.00 0.01 0.02 0.01 0.00 0.00 0.00 0.00 0.00 0.00 0.00 0.00 0.00 0.00 0.00 0.00 0.00 0.00 0.00 0.00 0.00 0.00 0.00 0.00 0.00 0.00 0.00 0.00 0.00 0.00 0.00 0.00
0.00 0.00 0.00 0.00 0.00 0.00 0.00 0.00 0.00 0.00 0.01 0.01 0.01 0.01 0.01 0.02 0.06 0.04 0.00 0.00 0.00 0.00 0.00 0.00 0.00 0.00 0.00 0.00 0.00 0.00 0.00 0.00 0.00 0.00 0.00 0.00 0.00 0.00 0.00 0.00 0.00 0.00 0.00 0.00 0.00 0.00 0.00
0.00 0.00 0.00 0.00 0.00 0.00 0.00 0.00 0.00 0.00 0.01 0.02 0.04 0.05 0.06 0.16 0.23 0.05 0.01 0.01 0.04 0.03 0.01 0.00 0.00 0.00 0.00 0.00 0.00 0.00 0.00 0.00 0.00 0.00 0.00 0.00 0.00 0.00 0.00 0.00 0.00 0.00 0.00 0.00 0.00 0.00 0.00
0.00 0.00 0.00 0.00 0.00 0.00 0.00 0.00 0.00 0.00 0.02 0.04 0.06 0.11 0.22 0.37 0.28 0.16 0.03 0.01 0.09 0.11 0.23 0.03 0.00 0.00 0.00 0.00 0.00 0.00 0.00 0.00 0.00 0.00 0.00 0.00 0.00 0.00 0.00 0.00 0.00 0.00 0.00 0.00 0.00 0.00 0.00
0.01 0.00 0.01 0.00 0.00 0.00 0.00 0.00 0.00 0.00 0.00 0.05 0.10 0.15 0.28 0.43 0.31 0.07 0.02 0.09 0.23 0.36 0.38 0.03 0.00 0.00 0.00 0.00 0.00 0.00 0.00 0.00 0.00 0.00 0.00 0.00 0.00 0.00 0.00 0.00 0.00 0.00 0.00 0.00 0.00 0.00 0.00
0.01 0.00 0.00 0.00 0.00 0.00 0.00 0.00 0.00 0.00 0.01 0.01 0.10 0.25 0.37 0.34 0.28 0.08 0.18 0.38 0.54 0.61 0.22 0.02 0.00 0.00 0.00 0.00 0.00 0.00 0.00 0.00 0.00 0.00 0.00 0.00 0.00 0.00 0.00 0.00 0.00 0.00 0.00 0.00 0.00 0.00 0.00
0.01 0.00 0.00 0.00 0.01 0.00 0.00 0.00 0.00 0.00 0.00 0.00 0.04 0.23 0.48 0.37 0.14 0.14 0.60 0.94 0.83 0.37 0.10 0.01 0.00 0.00 0.00 0.00 0.00 0.00 0.00 0.00 0.00 0.00 0.00 0.00 0.00 0.00 0.00 0.00 0.00 0.00 0.00 0.00 0.00 0.00 0.00
0.01 0.01 0.01 0.01 0.01 0.00 0.00 0.00 0.00 0.00 0.01 0.01 0.03 0.17 0.49 0.44 0.15 0.36 0.83 1.34 0.96 0.22 0.01 0.00 0.00 0.00 0.00 0.00 0.00 0.00 0.00 0.00 0.00 0.00 0.00 0.00 0.00 0.00 0.00 0.00 0.00 0.00 0.00 0.00 0.00 0.00 0.00
0.02 0.02 0.01 0.01 0.01 0.00 0.00 0.01 0.01 0.01 0.02 0.04 0.03 0.13 0.32 0.24 0.18 0.65 1.01 1.11 0.49 0.03 0.00 0.00 0.00 0.00 0.00 0.00 0.00 0.00 0.00 0.00 0.00 0.00 0.00 0.00 0.00 0.00 0.00 0.00 0.00 0.00 0.00 0.00 0.00 0.00 0.00
0.02 0.02 0.02 0.01 0.01 0.01 0.01 0.01 0.01 0.02 0.03 0.08 0.07 0.16 0.22 0.15 0.36 1.01 1.31 0.68 0.24 0.01 0.00 0.00 0.00 0.00 0.00 0.00 0.00 0.00 0.00 0.00 0.00 0.00 0.00 0.00 0.00 0.00 0.00 0.00 0.00 0.00 0.00 0.00 0.00 0.00 0.00
0.02 0.02 0.02 0.01 0.01 0.01 0.01 0.01 0.02 0.04 0.09 0.16 0.09 0.15 0.18 0.18 0.77 1.00 0.99 0.40 0.05 0.00 0.00 0.00 0.00 0.00 0.00 0.00 0.00 0.00 0.00 0.00 0.00 0.00 0.00 0.00 0.00 0.00 0.00 0.00 0.00 0.00 0.00 0.00 0.00 0.00 0.00
0.03 0.03 0.04 0.04 0.03 0.03 0.02 0.02 0.03 0.05 0.13 0.08 0.11 0.11 0.23 0.44 0.86 0.86 0.61 0.19 0.02 0.00 0.00 0.00 0.00 0.00 0.00 0.00 0.00 0.00 0.00 0.00 0.00 0.00 0.00 0.00 0.00 0.00 0.00 0.00 0.00 0.00 0.00 0.00 0.00 0.00 0.00
0.04 0.04 0.05 0.05 0.06 0.06 0.06 0.06 0.06 0.07 0.14 0.18 0.19 0.28 0.41 0.51 0.61 0.61 0.34 0.18 0.04 0.00 0.00 0.00 0.01 0.01 0.02 0.01 0.00 0.00 0.00 0.00 0.00 0.00 0.00 0.00 0.00 0.00 0.00 0.00 0.00 0.00 0.00 0.00 0.00 0.00 0.00
0.06 0.06 0.05 0.04 0.03 0.03 0.03 0.04 0.07 0.13 0.19 0.37 0.52 0.45 0.34 0.61 0.57 0.49 0.24 0.10 0.04 0.02 0.01 0.01 0.02 0.02 0.02 0.03 0.01 0.00 0.00 0.00 0.00 0.00 0.00 0.00 0.00 0.00 0.00 0.00 0.00 0.00 0.00 0.00 0.00 0.00 0.00
0.04 0.05 0.06 0.06 0.06 0.06 0.07 0.08 0.08 0.10 0.24 0.70 0.78 0.43 0.34 0.28 0.32 0.18 0.14 0.07 0.04 0.02 0.02 0.04 0.05 0.02 0.00 0.02 0.01 0.00 0.00 0.00 0.00 0.00 0.00 0.00 0.00 0.00 0.00 0.00 0.00 0.00 0.00 0.00 0.00 0.00 0.00
0.02 0.03 0.05 0.05 0.06 0.07 0.10 0.11 0.13 0.15 0.31 0.74 0.99 0.45 0.40 0.27 0.12 0.16 0.09 0.05 0.01 0.01 0.02 0.02 0.04 0.03 0.03 0.02 0.01 0.01 0.00 0.00 0.00 0.00 0.00 0.01 0.04 0.01 0.00 0.00 0.00 0.00 0.00 0.00 0.00 0.00 0.00
0.01 0.01 0.03 0.07 0.12 0.14 0.12 0.10 0.13 0.18 0.31 0.43 0.46 0.37 0.49 0.45 0.11 0.17 0.06 0.01 0.00 0.00 0.01 0.01 0.01 0.02 0.03 0.01 0.02 0.03 0.03 0.01 0.01 0.00 0.00 0.03 0.04 0.02 0.00 0.00 0.00 0.00 0.00 0.00 0.00 0.00 0.00
0.01 0.02 0.03 0.05 0.08 0.11 0.16 0.21 0.19 0.19 0.31 0.51 0.43 0.37 0.31 0.33 0.10 0.05 0.04 0.01 0.01 0.00 0.00 0.00 0.00 0.01 0.00 0.04 0.23 0.27 0.16 0.11 0.03 0.00 0.00 0.01 0.02 0.03 0.03 0.00 0.00 0.00 0.00 0.00 0.00 0.00 0.00
0.04 0.06 0.09 0.11 0.15 0.17 0.17 0.17 0.25 0.27 0.24 0.57 0.61 0.40 0.47 0.50 0.20 0.01 0.01 0.00 0.01 0.04 0.03 0.01 0.00 0.00 0.02 0.15 0.46 0.65 0.24 0.10 0.01 0.00 0.00 0.00 0.00 0.02 0.05 0.03 0.00 0.00 0.00 0.00 0.00 0.00 0.00
0.09 0.09 0.12 0.20 0.27 0.29 0.28 0.26 0.21 0.19 0.25 0.62 0.75 0.38 0.43 0.63 0.26 0.03 0.01 0.03 0.01 0.05 0.12 0.07 0.03 0.05 0.10 0.32 0.51 0.42 0.22 0.01 0.00 0.00 0.00 0.00 0.01 0.00 0.02 0.01 0.00 0.00 0.00 0.00 0.00 0.00 0.00
0.07 0.07 0.10 0.20 0.31 0.36 0.40 0.43 0.34 0.18 0.15 0.48 0.95 0.54 0.46 0.52 0.30 0.08 0.02 0.03 0.04 0.07 0.16 0.12 0.08 0.11 0.25 0.50 0.56 0.28 0.11 0.01 0.00 0.00 0.00 0.00 0.00 0.00 0.00 0.00 0.00 0.00 0.00 0.00 0.00 0.00 0.00
0.06 0.06 0.11 0.24 0.36 0.42 0.54 0.57 0.47 0.26 0.21 0.34 0.76 0.67 0.62 0.58 0.48 0.22 0.07 0.05 0.06 0.05 0.07 0.10 0.26 0.17 0.29 0.37 0.28 0.16 0.04 0.00 0.00 0.00 0.00 0.00 0.00 0.00 0.00 0.00 0.00 0.00 0.00 0.00 0.00 0.00 0.00

GFSGBSN_prec_precacc12_252.txt.gz
Total_Precipitation_Accumulation
0.00 0.00 0.00 0.00 0.00 0.00 0.00 0.00 0.00 0.00 0.00 0.00 0.00 0.00 0.00 0.00 0.00 0.00 0.00 0.00 0.00 0.00 0.00 0.00 0.00 0.00 0.00 0.00 0.00 0.00 0.00 0.00 0.00 0.00 0.00 0.00 0.00 0.00 0.00 0.00 0.00 0.00 0.00 0.00 0.00 0.00 0.00
0.00 0.00 0.00 0.00 0.00 0.00 0.00 0.00 0.00 0.00 0.00 0.00 0.00 0.00 0.00 0.00 0.00 0.00 0.00 0.00 0.00 0.00 0.00 0.00 0.00 0.00 0.00 0.00 0.00 0.00 0.00 0.00 0.00 0.00 0.00 0.00 0.00 0.00 0.00 0.00 0.00 0.00 0.00 0.00 0.00 0.00 0.00
0.00 0.00 0.00 0.00 0.00 0.00 0.00 0.00 0.00 0.00 0.00 0.00 0.00 0.00 0.00 0.00 0.00 0.00 0.00 0.00 0.00 0.00 0.00 0.00 0.00 0.00 0.00 0.00 0.00 0.00 0.00 0.00 0.00 0.00 0.00 0.00 0.00 0.00 0.00 0.00 0.00 0.00 0.00 0.00 0.00 0.00 0.00
0.00 0.00 0.00 0.00 0.00 0.00 0.00 0.00 0.00 0.00 0.00 0.00 0.00 0.00 0.00 0.00 0.00 0.00 0.00 0.00 0.00 0.00 0.00 0.00 0.00 0.00 0.00 0.00 0.00 0.00 0.00 0.00 0.00 0.00 0.00 0.00 0.00 0.00 0.00 0.00 0.00 0.00 0.00 0.00 0.00 0.00 0.00
0.00 0.00 0.00 0.00 0.00 0.00 0.00 0.00 0.00 0.00 0.00 0.00 0.00 0.00 0.00 0.00 0.00 0.00 0.00 0.00 0.00 0.00 0.00 0.00 0.00 0.00 0.00 0.00 0.00 0.00 0.00 0.00 0.00 0.00 0.00 0.00 0.00 0.00 0.00 0.00 0.00 0.00 0.00 0.00 0.00 0.00 0.00
0.01 0.00 0.00 0.00 0.00 0.00 0.00 0.00 0.00 0.00 0.00 0.00 0.00 0.00 0.00 0.00 0.00 0.00 0.00 0.00 0.00 0.00 0.00 0.00 0.00 0.00 0.00 0.00 0.00 0.00 0.00 0.00 0.00 0.00 0.00 0.00 0.00 0.00 0.00 0.00 0.00 0.00 0.00 0.00 0.00 0.00 0.00
0.01 0.01 0.00 0.00 0.00 0.00 0.00 0.00 0.00 0.00 0.00 0.00 0.00 0.00 0.00 0.00 0.00 0.01 0.00 0.00 0.00 0.00 0.00 0.00 0.00 0.00 0.00 0.00 0.00 0.00 0.00 0.00 0.00 0.00 0.00 0.00 0.00 0.00 0.00 0.00 0.00 0.00 0.00 0.00 0.00 0.00 0.00
0.00 0.00 0.00 0.00 0.00 0.00 0.00 0.00 0.00 0.00 0.00 0.00 0.00 0.00 0.00 0.00 0.01 0.02 0.01 0.00 0.00 0.00 0.00 0.00 0.00 0.00 0.00 0.00 0.00 0.00 0.00 0.00 0.00 0.00 0.00 0.00 0.00 0.00 0.00 0.00 0.00 0.00 0.00 0.00 0.00 0.00 0.00
0.00 0.00 0.00 0.00 0.00 0.00 0.00 0.00 0.00 0.00 0.00 0.00 0.00 0.00 0.00 0.01 0.06 0.05 0.01 0.01 0.00 0.00 0.00 0.00 0.00 0.00 0.00 0.00 0.00 0.00 0.00 0.00 0.00 0.00 0.00 0.00 0.00 0.00 0.00 0.00 0.00 0.00 0.00 0.00 0.00 0.00 0.00
0.00 0.00 0.00 0.00 0.00 0.00 0.00 0.00 0.00 0.00 0.00 0.00 0.00 0.01 0.03 0.12 0.23 0.05 0.01 0.01 0.04 0.03 0.01 0.00 0.00 0.00 0.00 0.00 0.00 0.00 0.00 0.00 0.00 0.00 0.00 0.00 0.00 0.00 0.00 0.00 0.00 0.00 0.00 0.00 0.00 0.00 0.00
0.01 0.00 0.00 0.00 0.00 0.00 0.00 0.00 0.00 0.00 0.00 0.00 0.00 0.00 0.10 0.30 0.28 0.16 0.03 0.01 0.10 0.11 0.28 0.03 0.00 0.00 0.00 0.00 0.00 0.00 0.00 0.00 0.00 0.00 0.00 0.00 0.00 0.00 0.00 0.00 0.00 0.00 0.00 0.00 0.00 0.00 0.00
0.00 0.00 0.01 0.01 0.00 0.00 0.00 0.00 0.00 0.00 0.00 0.00 0.00 0.00 0.05 0.27 0.29 0.07 0.02 0.09 0.23 0.37 0.40 0.03 0.00 0.00 0.00 0.00 0.00 0.00 0.00 0.00 0.00 0.00 0.00 0.00 0.00 0.00 0.00 0.00 0.00 0.00 0.00 0.00 0.00 0.00 0.00
0.01 0.00 0.00 0.00 0.00 0.00 0.00 0.00 0.00 0.00 0.00 0.00 0.00 0.00 0.04 0.15 0.24 0.08 0.18 0.38 0.53 0.61 0.22 0.02 0.00 0.00 0.00 0.00 0.00 0.00 0.00 0.00 0.00 0.00 0.00 0.00 0.00 0.00 0.00 0.00 0.00 0.00 0.00 0.00 0.00 0.00 0.00
0.01 0.01 0.00 0.00 0.00 0.00 0.00 0.00 0.00 0.00 0.00 0.00 0.00 0.00 0.01 0.11 0.11 0.13 0.55 0.89 0.80 0.36 0.10 0.01 0.00 0.00 0.00 0.00 0.00 0.00 0.00 0.00 0.00 0.00 0.00 0.00 0.00 0.00 0.00 0.00 0.00 0.00 0.00 0.00 0.00 0.00 0.00
0.01 0.01 0.01 0.01 0.01 0.01 0.00 0.01 0.01 0.00 0.00 0.01 0.02 0.00 0.00 0.04 0.06 0.32 0.70 1.19 0.91 0.21 0.01 0.00 0.00 0.00 0.00 0.00 0.00 0.00 0.00 0.00 0.00 0.00 0.00 0.00 0.00 0.00 0.00 0.00 0.00 0.00 0.00 0.00 0.00 0.00 0.00
0.01 0.02 0.01 0.01 0.01 0.01 0.01 0.01 0.01 0.01 0.01 0.04 0.02 0.01 0.00 0.00 0.05 0.43 0.83 0.93 0.46 0.03 0.00 0.00 0.00 0.00 0.00 0.00 0.00 0.00 0.00 0.00 0.00 0.00 0.00 0.00 0.00 0.00 0.00 0.00 0.00 0.00 0.00 0.00 0.00 0.00 0.00
0.01 0.01 0.02 0.02 0.01 0.01 0.01 0.01 0.02 0.02 0.04 0.07 0.03 0.02 0.00 0.00 0.09 0.53 1.04 0.55 0.22 0.01 0.00 0.00 0.00 0.00 0.00 0.00 0.00 0.00 0.00 0.00 0.00 0.00 0.00 0.00 0.00 0.00 0.00 0.00 0.00 0.00 0.00 0.00 0.00 0.00 0.00
0.00 0.00 0.01 0.01 0.01 0.01 0.01 0.01 0.02 0.04 0.10 0.15 0.06 0.03 0.01 0.04 0.08 0.37 0.72 0.37 0.05 0.00 0.00 0.00 0.00 0.00 0.00 0.00 0.00 0.00 0.00 0.00 0.00 0.00 0.00 0.00 0.00 0.00 0.00 0.00 0.00 0.00 0.00 0.00 0.00 0.00 0.00
0.01 0.01 0.01 0.02 0.02 0.02 0.02 0.02 0.03 0.05 0.13 0.05 0.06 0.02 0.04 0.23 0.17 0.19 0.38 0.18 0.02 0.00 0.00 0.00 0.00 0.00 0.00 0.00 0.01 0.00 0.00 0.00 0.00 0.00 0.00 0.00 0.00 0.01 0.00 0.00 0.00 0.00 0.00 0.00 0.00 0.00 0.00
0.02 0.01 0.02 0.03 0.04 0.05 0.05 0.05 0.05 0.06 0.15 0.14 0.10 0.11 0.10 0.07 0.12 0.26 0.24 0.18 0.04 0.00 0.00 0.00 0.01 0.01 0.02 0.02 0.01 0.03 0.00 0.00 0.00 0.00 0.00 0.00 0.00 0.01 0.01 0.00 0.00 0.00 0.00 0.00 0.00 0.00 0.00
0.02 0.02 0.02 0.01 0.01 0.02 0.02 0.03 0.06 0.13 0.21 0.33 0.41 0.18 0.05 0.05 0.03 0.19 0.21 0.10 0.04 0.02 0.01 0.01 0.02 0.02 0.02 0.04 0.01 0.01 0.00 0.00 0.00 0.00 0.00 0.00 0.01 0.00 0.00 0.00 0.00 0.00 0.00 0.00 0.00 0.00 0.00
0.02 0.02 0.02 0.02 0.02 0.03 0.05 0.06 0.06 0.09 0.26 0.59 0.62 0.17 0.04 0.01 0.03 0.10 0.13 0.07 0.04 0.02 0.02 0.04 0.05 0.02 0.00 0.02 0.02 0.01 0.00 0.01 0.03 0.04 0.04 0.04 0.04 0.00 0.00 0.00 0.00 0.00 0.00 0.00 0.00 0.00 0.00
0.00 0.00 0.01 0.01 0.02 0.03 0.06 0.08 0.10 0.13 0.30 0.58 0.77 0.34 0.19 0.07 0.04 0.16 0.09 0.05 0.01 0.01 0.02 0.02 0.04 0.03 0.04 0.02 0.01 0.01 0.02 0.05 0.09 0.06 0.11 0.15 0.13 0.04 0.00 0.00 0.00 0.01 0.00 0.00 0.00 0.00 0.00
0.00 0.00 0.01 0.01 0.02 0.04 0.05 0.06 0.09 0.13 0.24 0.26 0.26 0.20 0.36 0.24 0.09 0.16 0.06 0.01 0.00 0.00 0.01 0.01 0.01 0.02 0.03 0.01 0.02 0.03 0.06 0.08 0.06 0.04 0.04 0.16 0.15 0.15 0.07 0.01 0.03 0.02 0.00 0.00 0.00 0.00 0.00
0.01 0.01 0.02 0.02 0.02 0.02 0.03 0.09 0.11 0.12 0.24 0.41 0.27 0.23 0.19 0.16 0.05 0.06 0.04 0.01 0.01 0.00 0.00 0.00 0.00 0.01 0.00 0.04 0.25 0.29 0.18 0.16 0.08 0.02 0.00 0.03 0.06 0.13 0.16 0.12 0.05 0.00 0.00 0.00 0.00 0.00 0.00
0.04 0.05 0.06 0.07 0.08 0.08 0.07 0.06 0.13 0.20 0.22 0.44 0.45 0.33 0.42 0.47 0.15 0.02 0.01 0.00 0.01 0.04 0.03 0.01 0.00 0.00 0.03 0.16 0.48 0.72 0.31 0.16 0.05 0.01 0.00 0.00 0.02 0.06 0.10 0.10 0.08 0.01 0.00 0.00 0.00 0.00 0.00
0.08 0.09 0.11 0.13 0.15 0.14 0.13 0.10 0.08 0.12 0.24 0.49 0.53 0.31 0.41 0.62 0.22 0.03 0.03 0.04 0.01 0.05 0.12 0.07 0.03 0.05 0.11 0.34 0.54 0.47 0.28 0.07 0.06 0.04 0.02 0.03 0.04 0.03 0.03 0.02 0.00 0.00 0.00 0.00 0.00 0.00 0.00
0.06 0.07 0.09 0.11 0.13 0.15 0.17 0.16 0.15 0.14 0.16 0.40 0.71 0.42 0.34 0.48 0.28 0.07 0.02 0.03 0.04 0.08 0.17 0.12 0.07 0.08 0.24 0.51 0.58 0.29 0.15 0.08 0.09 0.04 0.02 0.03 0.04 0.02 0.01 0.01 0.00 0.00 0.00 0.00 0.00 0.00 0.00
0.05 0.05 0.10 0.11 0.12 0.16 0.18 0.19 0.19 0.18 0.20 0.34 0.66 0.53 0.45 0.48 0.46 0.17 0.06 0.05 0.06 0.05 0.08 0.11 0.27 0.17 0.29 0.36 0.27 0.18 0.09 0.09 0.09 0.08 0.02 0.03 0.01 0.00 0.00 0.00 0.00 0.00 0.00 0.00 0.00 0.00 0.00